AFR442 LFPG-SBGL

Flight info

Callsign AFR442
Flight time 11h 12m
Altitude 31000
Route LGL UT176 TERPO UN872 ERIGA UZ218 FUJTI DCT ATLEN/N0437F230 N872 RALUS UN872 ESP/N0411F190 W8 BAROK/N0490F310 UN873 BENTU/N0490F330 UN873 SAMAR N873 ODEGI/N0495F320 N873 ISOKA/N0495F340 N873 IPERA/N0448F240 B623 CVS/N0478F280 UB623 RAKUD/N0444F240 B623 FNR/N0487F360 UN857 MOLSU
Aircraft B77W/H-SDE1E2E3FGHIJ2J3J4J5M1RWXY/LB1D1

Departure

Time 2026-05-08 20:51
Airport Charles de Gaulle International Airport (LFPG)

Arrival

Time 2026-05-09 08:03
Airport Rio Galeão – Tom Jobim International Airport (SBGL)
Time Latitude Longitude Altitude Speed Heading
2026-05-08 20:17 49.00574 2.58953 405 ft 0 kts 86°
2026-05-08 20:30 49.00574 2.58949 405 ft 2 kts 86°
2026-05-08 20:30 49.00572 2.58910 405 ft 4 kts 85°
2026-05-08 20:30 49.00570 2.58875 405 ft 4 kts 71°
2026-05-08 20:31 49.00561 2.58845 405 ft 4 kts 38°
2026-05-08 20:31 49.00542 2.58830 405 ft 4 kts
2026-05-08 20:31 49.00516 2.58829 405 ft 4 kts 355°
2026-05-08 20:31 49.00497 2.58832 405 ft 1 kts 356°
2026-05-08 20:32 49.00494 2.58832 405 ft 0 kts 356°
2026-05-08 20:34 49.00513 2.58830 405 ft 9 kts 356°
2026-05-08 20:34 49.00595 2.58821 405 ft 12 kts 355°
2026-05-08 20:34 49.00752 2.58802 405 ft 10 kts 355°
2026-05-08 20:35 49.00768 2.58800 405 ft 0 kts 355°
2026-05-08 20:38 49.00815 2.58777 405 ft 11 kts 325°
2026-05-08 20:38 49.00846 2.58679 405 ft 10 kts 282°
2026-05-08 20:39 49.00844 2.58572 405 ft 12 kts 265°
2026-05-08 20:39 49.00834 2.58393 405 ft 18 kts 265°
2026-05-08 20:39 49.00825 2.58205 405 ft 17 kts 266°
2026-05-08 20:39 49.00891 2.58069 405 ft 17 kts 302°
2026-05-08 20:40 49.00901 2.57959 405 ft 5 kts 265°
2026-05-08 20:40 49.00901 2.57948 405 ft 0 kts 265°
2026-05-08 20:40 49.00900 2.57934 405 ft 6 kts 264°
2026-05-08 20:41 49.00890 2.57770 405 ft 24 kts 265°
2026-05-08 20:41 49.00874 2.57470 405 ft 29 kts 265°
2026-05-08 20:41 49.00857 2.57175 405 ft 27 kts 265°
2026-05-08 20:41 49.00842 2.56906 405 ft 24 kts 265°
2026-05-08 20:42 49.00830 2.56661 405 ft 23 kts 265°
2026-05-08 20:42 49.00811 2.56409 405 ft 25 kts 262°
2026-05-08 20:42 49.00785 2.56126 405 ft 29 kts 262°
2026-05-08 20:42 49.00758 2.55830 405 ft 27 kts 262°
2026-05-08 20:43 49.00733 2.55555 405 ft 25 kts 266°
2026-05-08 20:43 49.00714 2.55328 405 ft 19 kts 234°
2026-05-08 20:43 49.00609 2.55249 405 ft 18 kts 166°
2026-05-08 20:43 49.00492 2.55299 405 ft 17 kts 164°
2026-05-08 20:44 49.00380 2.55348 405 ft 16 kts 164°
2026-05-08 20:44 49.00275 2.55394 405 ft 15 kts 164°
2026-05-08 20:44 49.00176 2.55437 405 ft 14 kts 164°
2026-05-08 20:44 49.00083 2.55477 405 ft 13 kts 164°
2026-05-08 20:45 48.99996 2.55514 405 ft 13 kts 164°
2026-05-08 20:45 48.99941 2.55542 405 ft 12 kts 158°
2026-05-08 20:45 48.99869 2.55626 405 ft 8 kts 128°
2026-05-08 20:45 48.99844 2.55702 405 ft 8 kts 110°
2026-05-08 20:46 48.99801 2.55782 405 ft 10 kts 155°
2026-05-08 20:46 48.99725 2.55798 405 ft 14 kts 174°
2026-05-08 20:46 48.99632 2.55815 405 ft 13 kts 159°
2026-05-08 20:46 48.99606 2.55904 405 ft 0 kts 86°
2026-05-08 20:49 48.99606 2.55906 405 ft 3 kts 86°
2026-05-08 20:50 48.99613 2.56055 405 ft 34 kts 85°
2026-05-08 20:50 48.99653 2.56782 406 ft 103 kts 86°
2026-05-08 20:50 48.99728 2.58184 406 ft 165 kts 85°
2026-05-08 20:50 48.99832 2.60163 594 ft 196 kts 84°
2026-05-08 20:51 48.99938 2.62219 1360 ft 195 kts 84°
2026-05-08 20:51 49.00051 2.64302 2019 ft 198 kts 84°
2026-05-08 20:51 49.00164 2.66433 2576 ft 209 kts 84°
2026-05-08 20:51 49.00283 2.68703 3098 ft 221 kts 84°
2026-05-08 20:52 49.00410 2.71139 3487 ft 241 kts 84°
2026-05-08 20:52 49.00540 2.73604 3947 ft 255 kts 84°
2026-05-08 20:52 49.00681 2.76332 4666 ft 261 kts 85°
2026-05-08 20:52 49.00793 2.79084 5386 ft 266 kts 87°
2026-05-08 20:53 49.00786 2.81923 6033 ft 270 kts 94°
2026-05-08 20:53 49.00517 2.84779 6613 ft 275 kts 101°
2026-05-08 20:53 49.00096 2.87628 7226 ft 277 kts 103°
2026-05-08 20:53 48.99645 2.90505 7782 ft 281 kts 103°
2026-05-08 20:54 48.99200 2.93424 8374 ft 284 kts 103°
2026-05-08 20:54 48.98751 2.96372 8901 ft 288 kts 105°
2026-05-08 20:54 48.97952 2.99168 9353 ft 291 kts 127°
2026-05-08 20:54 48.96473 3.01178 9854 ft 292 kts 151°
2026-05-08 20:55 48.94544 3.02069 10343 ft 294 kts 175°
2026-05-08 20:55 48.92488 3.01687 10549 ft 307 kts 199°
2026-05-08 20:55 48.90616 2.99999 10704 ft 323 kts 222°
2026-05-08 20:55 48.89258 2.97196 10891 ft 340 kts 243°
2026-05-08 20:56 48.88508 2.93711 11188 ft 354 kts 256°
2026-05-08 20:56 48.88053 2.89982 11595 ft 364 kts 259°
2026-05-08 20:56 48.87640 2.86168 12191 ft 368 kts 260°
2026-05-08 20:56 48.87242 2.82302 12798 ft 373 kts 259°
2026-05-08 20:57 48.86757 2.78420 13477 ft 375 kts 258°
2026-05-08 20:57 48.86226 2.74584 14112 ft 378 kts 257°
2026-05-08 20:57 48.85612 2.70681 14713 ft 381 kts 255°
2026-05-08 20:57 48.84932 2.66775 15308 ft 384 kts 254°
2026-05-08 20:58 48.84224 2.62849 15910 ft 387 kts 254°
2026-05-08 20:58 48.83513 2.58888 16425 ft 392 kts 254°
2026-05-08 20:58 48.82800 2.54890 17033 ft 393 kts 255°
2026-05-08 20:58 48.82089 2.50873 17587 ft 396 kts 255°
2026-05-08 20:59 48.81375 2.46807 18155 ft 398 kts 255°
2026-05-08 20:59 48.80727 2.42730 18663 ft 401 kts 259°
2026-05-08 20:59 48.80342 2.38510 19088 ft 405 kts 264°
2026-05-08 20:59 48.80138 2.34228 19572 ft 409 kts 267°
2026-05-08 21:00 48.80061 2.29918 20152 ft 409 kts 269°
2026-05-08 21:00 48.80055 2.25583 20543 ft 414 kts 270°
2026-05-08 21:00 48.80072 2.21173 20975 ft 418 kts 270°
2026-05-08 21:00 48.80080 2.16778 21474 ft 419 kts 270°
2026-05-08 21:01 48.80077 2.12404 21885 ft 423 kts 270°
2026-05-08 21:01 48.80073 2.08008 22322 ft 425 kts 271°
2026-05-08 21:01 48.80066 2.03500 22697 ft 429 kts 271°
2026-05-08 21:01 48.80055 1.98975 23107 ft 431 kts 271°
2026-05-08 21:02 48.80042 1.94670 23421 ft 435 kts 271°
2026-05-08 21:02 48.80026 1.90060 23798 ft 438 kts 271°
2026-05-08 21:02 48.80012 1.85431 24176 ft 440 kts 271°
2026-05-08 21:02 48.80033 1.80768 24523 ft 443 kts 271°
2026-05-08 21:03 48.80053 1.76099 24964 ft 444 kts 271°
2026-05-08 21:03 48.80060 1.71398 25318 ft 447 kts 271°
2026-05-08 21:03 48.80051 1.66747 25725 ft 447 kts 271°
2026-05-08 21:03 48.80041 1.62105 26062 ft 450 kts 271°
2026-05-08 21:04 48.80025 1.57460 26382 ft 452 kts 271°
2026-05-08 21:04 48.80004 1.52689 26712 ft 454 kts 271°
2026-05-08 21:04 48.79981 1.47878 27022 ft 457 kts 271°
2026-05-08 21:04 48.79956 1.43055 27394 ft 457 kts 271°
2026-05-08 21:05 48.79927 1.38226 27718 ft 459 kts 270°
2026-05-08 21:05 48.79897 1.33371 27986 ft 462 kts 270°
2026-05-08 21:05 48.79865 1.28497 28295 ft 463 kts 270°
2026-05-08 21:05 48.79830 1.23680 28606 ft 464 kts 270°
2026-05-08 21:06 48.79793 1.18774 28869 ft 466 kts 270°
2026-05-08 21:06 48.79754 1.13850 29122 ft 468 kts 270°
2026-05-08 21:06 48.79711 1.08902 29411 ft 469 kts 270°
2026-05-08 21:06 48.79669 1.03959 29718 ft 469 kts 270°
2026-05-08 21:07 48.79635 0.99032 30124 ft 466 kts 270°
2026-05-08 21:07 48.79621 0.94121 30491 ft 465 kts 270°
2026-05-08 21:07 48.79580 0.89286 30813 ft 464 kts 270°
2026-05-08 21:07 48.79527 0.84395 31058 ft 465 kts 269°
2026-05-08 21:08 48.79464 0.79499 31092 ft 464 kts 269°
2026-05-08 21:08 48.79332 0.69721 31072 ft 464 kts 269°
2026-05-08 21:09 48.79135 0.59955 31066 ft 463 kts 264°
2026-05-08 21:09 48.78448 0.55177 31069 ft 465 kts 252°
2026-05-08 21:09 48.77103 0.50715 31071 ft 467 kts 241°
2026-05-08 21:10 48.73393 0.42607 31068 ft 469 kts 233°
2026-05-08 21:10 48.69150 0.35164 31063 ft 470 kts 230°
2026-05-08 21:11 48.64840 0.27714 31060 ft 471 kts 230°
2026-05-08 21:11 48.60575 0.20223 31054 ft 470 kts 230°
2026-05-08 21:12 48.56318 0.12724 31050 ft 470 kts 230°
2026-05-08 21:12 48.52113 0.05155 31050 ft 470 kts 230°
2026-05-08 21:13 48.47912 -0.02300 31047 ft 469 kts 230°
2026-05-08 21:13 48.43678 -0.09756 31038 ft 467 kts 229°
2026-05-08 21:14 48.39445 -0.17194 31040 ft 468 kts 229°
2026-05-08 21:14 48.35198 -0.24649 31038 ft 469 kts 229°
2026-05-08 21:15 48.30925 -0.32050 31034 ft 469 kts 228°
2026-05-08 21:15 48.26650 -0.39362 31034 ft 468 kts 227°
2026-05-08 21:16 48.22349 -0.46708 31031 ft 468 kts 227°
2026-05-08 21:16 48.18047 -0.54047 31028 ft 469 kts 227°
2026-05-08 21:17 48.13769 -0.61326 31028 ft 469 kts 227°
2026-05-08 21:17 48.09482 -0.68690 31025 ft 469 kts 228°
2026-05-08 21:18 48.05200 -0.76056 31023 ft 470 kts 227°
2026-05-08 21:18 48.00888 -0.83391 31025 ft 470 kts 227°
2026-05-08 21:19 47.96571 -0.90707 31022 ft 470 kts 227°
2026-05-08 21:19 47.92256 -0.97986 31020 ft 472 kts 226°
2026-05-08 21:20 47.87905 -1.05308 31015 ft 472 kts 226°
2026-05-08 21:20 47.83545 -1.12622 31011 ft 471 kts 226°
2026-05-08 21:21 47.79202 -1.19921 31007 ft 472 kts 227°
2026-05-08 21:21 47.74882 -1.27174 31000 ft 472 kts 226°
2026-05-08 21:22 47.70508 -1.34441 30995 ft 472 kts 226°
2026-05-08 21:22 47.66122 -1.41686 30994 ft 471 kts 226°
2026-05-08 21:23 47.61743 -1.48921 30988 ft 472 kts 226°
2026-05-08 21:23 47.57385 -1.56097 30982 ft 472 kts 226°
2026-05-08 21:24 47.53019 -1.63345 30984 ft 471 kts 226°
2026-05-08 21:24 47.48632 -1.70559 30974 ft 472 kts 226°
2026-05-08 21:25 47.44223 -1.77743 30971 ft 472 kts 226°
2026-05-08 21:25 47.39841 -1.84869 30970 ft 472 kts 226°
2026-05-08 21:26 47.35171 -1.91609 30968 ft 469 kts 216°
2026-05-08 21:26 47.29895 -1.97277 30966 ft 469 kts 212°
2026-05-08 21:27 47.24367 -2.02346 30974 ft 467 kts 209°
2026-05-08 21:27 47.18825 -2.07239 30965 ft 467 kts 209°
2026-05-08 21:28 47.13259 -2.12175 30963 ft 467 kts 209°
2026-05-08 21:28 47.07721 -2.17167 30965 ft 468 kts 209°
2026-05-08 21:29 47.03091 -2.21269 30969 ft 467 kts 208°
2026-05-08 21:29 46.97519 -2.26179 30968 ft 467 kts 208°
2026-05-08 21:30 46.91043 -2.31871 30969 ft 467 kts 208°
2026-05-08 21:30 46.85475 -2.36760 30969 ft 467 kts 208°
2026-05-08 21:31 46.80802 -2.40856 30968 ft 467 kts 208°
2026-05-08 21:31 46.75260 -2.45700 30969 ft 468 kts 208°
2026-05-08 21:32 46.69677 -2.50568 30970 ft 467 kts 208°
2026-05-08 21:32 46.64097 -2.55424 30965 ft 467 kts 208°
2026-05-08 21:33 46.58514 -2.60272 30967 ft 468 kts 208°
2026-05-08 21:33 46.52938 -2.65162 30963 ft 468 kts 208°
2026-05-08 21:34 46.47405 -2.70013 30965 ft 468 kts 207°
2026-05-08 21:34 46.41814 -2.74837 30956 ft 468 kts 207°
2026-05-08 21:35 46.36217 -2.79648 30953 ft 468 kts 207°
2026-05-08 21:35 46.30617 -2.84454 30953 ft 468 kts 207°
2026-05-08 21:36 46.25177 -2.89635 30954 ft 470 kts 213°
2026-05-08 21:36 46.20074 -2.95558 30951 ft 472 kts 217°
2026-05-08 21:37 46.15132 -3.01709 30952 ft 473 kts 217°
2026-05-08 21:37 46.10126 -3.07867 30946 ft 473 kts 216°
2026-05-08 21:38 46.05100 -3.13969 30947 ft 473 kts 216°
2026-05-08 21:38 46.00064 -3.20050 30945 ft 473 kts 216°
2026-05-08 21:39 45.95056 -3.26171 30944 ft 472 kts 217°
2026-05-08 21:39 45.90045 -3.32251 30943 ft 471 kts 216°
2026-05-08 21:40 45.85053 -3.38234 30958 ft 471 kts 216°
2026-05-08 21:40 45.80015 -3.44270 30934 ft 470 kts 216°
2026-05-08 21:41 45.72495 -3.53284 30979 ft 471 kts 216°
2026-05-08 21:41 45.67459 -3.59299 30944 ft 472 kts 216°
2026-05-08 21:42 45.62449 -3.65261 30938 ft 472 kts 216°
2026-05-08 21:42 45.57405 -3.71245 30937 ft 471 kts 216°
2026-05-08 21:43 45.52363 -3.77215 30940 ft 471 kts 216°
2026-05-08 21:43 45.47317 -3.83174 30935 ft 471 kts 216°
2026-05-08 21:44 45.42306 -3.89067 30940 ft 470 kts 216°
2026-05-08 21:44 45.37270 -3.94992 30937 ft 470 kts 216°
2026-05-08 21:45 45.32231 -4.00887 30938 ft 469 kts 216°
2026-05-08 21:45 45.27200 -4.06780 30935 ft 468 kts 216°
2026-05-08 21:46 45.22180 -4.12631 30941 ft 466 kts 216°
2026-05-08 21:46 45.17199 -4.18424 30938 ft 465 kts 216°
2026-05-08 21:47 45.12200 -4.24233 30935 ft 465 kts 217°
2026-05-08 21:47 45.07194 -4.30028 30939 ft 464 kts 217°
2026-05-08 21:48 45.02210 -4.35796 30935 ft 463 kts 217°
2026-05-08 21:48 44.97222 -4.41550 30932 ft 462 kts 217°
2026-05-08 21:49 44.92248 -4.47272 30925 ft 461 kts 217°
2026-05-08 21:49 44.87270 -4.52987 30915 ft 461 kts 217°
2026-05-08 21:50 44.82295 -4.58684 30918 ft 460 kts 217°
2026-05-08 21:50 44.77365 -4.64317 30919 ft 459 kts 217°
2026-05-08 21:51 44.72424 -4.69986 30920 ft 458 kts 218°
2026-05-08 21:51 44.67478 -4.75629 30916 ft 458 kts 217°
2026-05-08 21:52 44.62517 -4.81240 30915 ft 458 kts 217°
2026-05-08 21:52 44.57589 -4.86806 30913 ft 458 kts 217°
2026-05-08 21:53 44.52623 -4.92404 30913 ft 458 kts 217°
2026-05-08 21:53 44.47667 -4.97988 30912 ft 458 kts 217°
2026-05-08 21:54 44.42693 -5.03567 30908 ft 458 kts 217°
2026-05-08 21:54 44.37751 -5.09098 30911 ft 458 kts 217°
2026-05-08 21:55 44.32781 -5.14651 30910 ft 457 kts 217°
2026-05-08 21:56 44.25341 -5.22941 30910 ft 456 kts 217°
2026-05-08 21:56 44.20395 -5.28493 30909 ft 456 kts 218°
2026-05-08 21:57 44.15495 -5.34023 30910 ft 456 kts 218°
2026-05-08 21:57 44.10535 -5.39529 30908 ft 456 kts 218°
2026-05-08 21:58 44.05571 -5.45007 30910 ft 455 kts 218°
2026-05-08 21:58 44.00607 -5.50477 30907 ft 455 kts 218°
2026-05-08 21:59 43.95683 -5.55890 30906 ft 452 kts 218°
2026-05-08 21:59 43.90792 -5.61361 30907 ft 452 kts 219°
2026-05-08 22:00 43.85917 -5.66851 30910 ft 452 kts 219°
2026-05-08 22:00 43.81024 -5.72352 30909 ft 453 kts 219°
2026-05-08 22:01 43.76183 -5.77851 30914 ft 453 kts 219°
2026-05-08 22:01 43.71288 -5.83347 30906 ft 453 kts 219°
2026-05-08 22:02 43.66246 -5.88971 30907 ft 453 kts 218°
2026-05-08 22:02 43.61347 -5.94422 30905 ft 452 kts 218°
2026-05-08 22:03 43.56292 -5.99777 30903 ft 452 kts 213°
2026-05-08 22:03 43.50856 -6.04108 30905 ft 452 kts 208°
2026-05-08 22:04 43.45209 -6.08053 30904 ft 451 kts 207°
2026-05-08 22:04 43.39804 -6.11785 30902 ft 450 kts 207°
2026-05-08 22:05 43.34081 -6.15807 30906 ft 450 kts 207°
2026-05-08 22:05 43.28502 -6.19685 30906 ft 449 kts 207°
2026-05-08 22:06 43.22930 -6.23539 30904 ft 448 kts 207°
2026-05-08 22:06 43.17328 -6.27405 30908 ft 447 kts 207°
2026-05-08 22:07 43.11773 -6.31231 30906 ft 447 kts 207°
2026-05-08 22:07 43.06250 -6.35136 30908 ft 446 kts 208°
2026-05-08 22:08 43.00793 -6.39039 30908 ft 445 kts 208°
2026-05-08 22:08 42.95305 -6.42917 30907 ft 444 kts 208°
2026-05-08 22:09 42.89826 -6.46778 30908 ft 443 kts 208°
2026-05-08 22:09 42.86043 -6.49439 30906 ft 442 kts 208°
2026-05-08 22:10 42.80583 -6.53277 30905 ft 441 kts 208°
2026-05-08 22:10 42.75076 -6.57094 30904 ft 441 kts 207°
2026-05-08 22:11 42.69598 -6.60831 30903 ft 440 kts 207°
2026-05-08 22:11 42.64120 -6.64572 30902 ft 440 kts 207°
2026-05-08 22:12 42.58653 -6.68300 30899 ft 439 kts 207°
2026-05-08 22:12 42.53192 -6.72021 30895 ft 439 kts 207°
2026-05-08 22:13 42.47587 -6.75851 30891 ft 439 kts 207°
2026-05-08 22:13 42.42137 -6.79608 30891 ft 439 kts 207°
2026-05-08 22:14 42.36634 -6.83342 30888 ft 439 kts 207°
2026-05-08 22:14 42.31165 -6.87036 30886 ft 439 kts 207°
2026-05-08 22:15 42.25698 -6.90725 30882 ft 439 kts 207°
2026-05-08 22:15 42.20269 -6.94385 30880 ft 439 kts 207°
2026-05-08 22:16 42.14777 -6.97998 30876 ft 439 kts 206°
2026-05-08 22:16 42.09268 -7.01554 30873 ft 439 kts 206°
2026-05-08 22:17 42.03762 -7.05109 30859 ft 439 kts 206°
2026-05-08 22:17 41.98294 -7.08636 30856 ft 436 kts 206°
2026-05-08 22:18 41.92846 -7.12153 30851 ft 433 kts 206°
2026-05-08 22:18 41.87425 -7.15666 30848 ft 433 kts 206°
2026-05-08 22:19 41.81992 -7.19166 30845 ft 434 kts 206°
2026-05-08 22:19 41.76546 -7.22668 30842 ft 434 kts 206°
2026-05-08 22:20 41.71102 -7.26172 30838 ft 434 kts 206°
2026-05-08 22:20 41.65704 -7.29655 30835 ft 434 kts 206°
2026-05-08 22:21 41.60265 -7.33168 30832 ft 434 kts 206°
2026-05-08 22:21 41.54822 -7.36653 30828 ft 434 kts 206°
2026-05-08 22:22 41.49379 -7.40128 30826 ft 433 kts 206°
2026-05-08 22:22 41.43979 -7.43572 30822 ft 433 kts 206°
2026-05-08 22:23 41.38546 -7.47033 30818 ft 433 kts 206°
2026-05-08 22:23 41.33110 -7.50474 30818 ft 432 kts 206°
2026-05-08 22:24 41.27671 -7.53904 30814 ft 432 kts 206°
2026-05-08 22:24 41.22241 -7.57324 30809 ft 431 kts 206°
2026-05-08 22:25 41.16849 -7.60713 30797 ft 431 kts 206°
2026-05-08 22:25 41.11436 -7.64112 30796 ft 431 kts 206°
2026-05-08 22:26 41.06023 -7.67518 30793 ft 430 kts 207°
2026-05-08 22:26 41.00630 -7.70930 30793 ft 429 kts 207°
2026-05-08 22:27 40.95244 -7.74327 30789 ft 429 kts 207°
2026-05-08 22:27 40.89810 -7.77548 30793 ft 428 kts 204°
2026-05-08 22:28 40.84273 -7.80424 30795 ft 428 kts 202°
2026-05-08 22:28 40.78616 -7.83184 30793 ft 427 kts 202°
2026-05-08 22:29 40.74013 -7.85421 30795 ft 427 kts 202°
2026-05-08 22:29 40.68261 -7.88221 30793 ft 426 kts 202°
2026-05-08 22:30 40.62511 -7.91014 30792 ft 426 kts 202°
2026-05-08 22:30 40.56863 -7.93754 30791 ft 425 kts 202°
2026-05-08 22:31 40.51374 -7.96406 30789 ft 424 kts 203°
2026-05-08 22:31 40.45833 -7.99088 30790 ft 424 kts 203°
2026-05-08 22:32 40.40298 -8.01761 30788 ft 424 kts 202°
2026-05-08 22:32 40.34752 -8.04434 30786 ft 425 kts 203°
2026-05-08 22:33 40.29243 -8.07080 30788 ft 424 kts 203°
2026-05-08 22:33 40.23702 -8.09743 30783 ft 424 kts 203°
2026-05-08 22:34 40.18177 -8.12391 30782 ft 423 kts 203°
2026-05-08 22:34 40.12626 -8.15044 30780 ft 423 kts 203°
2026-05-08 22:35 40.07078 -8.17694 30778 ft 423 kts 203°
2026-05-08 22:35 40.01527 -8.20343 30775 ft 423 kts 203°
2026-05-08 22:36 39.95899 -8.23022 30773 ft 423 kts 203°
2026-05-08 22:36 39.90391 -8.25640 30771 ft 422 kts 203°
2026-05-08 22:37 39.84828 -8.28276 30774 ft 422 kts 203°
2026-05-08 22:37 39.79306 -8.30892 30773 ft 422 kts 203°
2026-05-08 22:38 39.73783 -8.33504 30772 ft 422 kts 203°
2026-05-08 22:38 39.68982 -8.35770 30773 ft 422 kts 203°
2026-05-08 22:39 39.63415 -8.38393 30777 ft 421 kts 203°
2026-05-08 22:39 39.57620 -8.41119 30774 ft 421 kts 202°
2026-05-08 22:40 39.52147 -8.43688 30779 ft 421 kts 203°
2026-05-08 22:40 39.46642 -8.46269 30782 ft 420 kts 202°
2026-05-08 22:41 39.41148 -8.48840 30786 ft 419 kts 202°
2026-05-08 22:41 39.35665 -8.51401 30790 ft 419 kts 202°
2026-05-08 22:42 39.30189 -8.53955 30794 ft 418 kts 202°
2026-05-08 22:42 39.24718 -8.56502 30799 ft 418 kts 202°
2026-05-08 22:43 39.19254 -8.59043 30804 ft 417 kts 202°
2026-05-08 22:43 39.13795 -8.61576 30807 ft 417 kts 202°
2026-05-08 22:44 39.08379 -8.64085 30811 ft 416 kts 202°
2026-05-08 22:44 39.02948 -8.66598 30812 ft 415 kts 202°
2026-05-08 22:45 38.97511 -8.69108 30813 ft 415 kts 202°
2026-05-08 22:45 38.92082 -8.71611 30816 ft 414 kts 202°
2026-05-08 22:46 38.86664 -8.74105 30809 ft 414 kts 202°
2026-05-08 22:46 38.81247 -8.76595 30796 ft 413 kts 202°
2026-05-08 22:47 38.75843 -8.79074 30790 ft 412 kts 202°
2026-05-08 22:47 38.70478 -8.81531 30782 ft 412 kts 202°
2026-05-08 22:48 38.65076 -8.84002 30761 ft 412 kts 202°
2026-05-08 22:48 38.59684 -8.86464 30763 ft 411 kts 202°
2026-05-08 22:49 38.54295 -8.88920 30762 ft 411 kts 202°
2026-05-08 22:49 38.46259 -8.92577 30764 ft 411 kts 202°
2026-05-08 22:50 38.40870 -8.95024 30768 ft 410 kts 202°
2026-05-08 22:50 38.35495 -8.97461 30771 ft 410 kts 202°
2026-05-08 22:51 38.30121 -8.99893 30774 ft 409 kts 202°
2026-05-08 22:51 38.24763 -9.02315 30780 ft 409 kts 202°
2026-05-08 22:52 38.19406 -9.04732 30792 ft 408 kts 202°
2026-05-08 22:52 38.14082 -9.07131 30787 ft 409 kts 202°
2026-05-08 22:53 38.08723 -9.09541 30791 ft 409 kts 202°
2026-05-08 22:53 38.03356 -9.11952 30785 ft 409 kts 202°
2026-05-08 22:54 37.97996 -9.14355 30773 ft 404 kts 202°
2026-05-08 22:54 37.92725 -9.16715 30776 ft 402 kts 202°
2026-05-08 22:55 37.87465 -9.19067 30780 ft 405 kts 202°
2026-05-08 22:55 37.82155 -9.21437 30782 ft 405 kts 202°
2026-05-08 22:56 37.76845 -9.23804 30784 ft 404 kts 202°
2026-05-08 22:56 37.71531 -9.26169 30788 ft 404 kts 202°
2026-05-08 22:57 37.66233 -9.28523 30791 ft 404 kts 202°
2026-05-08 22:57 37.60960 -9.30863 30794 ft 404 kts 202°
2026-05-08 22:58 37.55655 -9.33214 30799 ft 404 kts 202°
2026-05-08 22:58 37.50350 -9.35560 30800 ft 404 kts 202°
2026-05-08 22:59 37.45052 -9.37901 30822 ft 403 kts 202°
2026-05-08 22:59 37.39794 -9.40220 30828 ft 403 kts 202°
2026-05-08 23:00 37.34498 -9.42551 30829 ft 403 kts 202°
2026-05-08 23:00 37.29207 -9.44878 30832 ft 402 kts 202°
2026-05-08 23:01 37.23925 -9.47197 30834 ft 402 kts 202°
2026-05-08 23:01 37.18647 -9.49512 30835 ft 402 kts 202°
2026-05-08 23:02 37.13378 -9.51818 30838 ft 401 kts 202°
2026-05-08 23:02 37.08142 -9.54107 30839 ft 401 kts 202°
2026-05-08 23:03 37.02869 -9.56409 30841 ft 401 kts 202°
2026-05-08 23:03 36.97608 -9.58702 30885 ft 400 kts 203°
2026-05-08 23:04 36.92357 -9.60988 30889 ft 400 kts 203°
2026-05-08 23:04 36.87111 -9.63268 30891 ft 399 kts 203°
2026-05-08 23:05 36.81914 -9.65524 30890 ft 398 kts 203°
2026-05-08 23:05 36.76684 -9.67791 30891 ft 397 kts 203°
2026-05-08 23:06 36.71456 -9.70054 30891 ft 398 kts 203°
2026-05-08 23:06 36.66233 -9.72311 30894 ft 397 kts 203°
2026-05-08 23:07 36.61053 -9.74547 30895 ft 396 kts 203°
2026-05-08 23:07 36.55851 -9.76789 30897 ft 395 kts 203°
2026-05-08 23:08 36.50653 -9.79027 30888 ft 395 kts 203°
2026-05-08 23:08 36.45466 -9.81257 30887 ft 394 kts 203°
2026-05-08 23:09 36.40317 -9.83468 30875 ft 395 kts 203°
2026-05-08 23:09 36.35125 -9.85694 30866 ft 394 kts 203°
2026-05-08 23:10 36.29941 -9.87915 30868 ft 394 kts 203°
2026-05-08 23:10 36.24782 -9.90162 30868 ft 393 kts 204°
2026-05-08 23:11 36.19630 -9.92433 30870 ft 393 kts 203°
2026-05-08 23:11 36.14491 -9.94645 30986 ft 396 kts 203°
2026-05-08 23:12 36.11891 -9.95760 31282 ft 395 kts 203°
2026-05-08 23:12 36.09305 -9.96869 31680 ft 392 kts 203°
2026-05-08 23:12 36.06736 -9.97972 31996 ft 391 kts 203°
2026-05-08 23:12 36.04167 -9.99075 32244 ft 391 kts 203°
2026-05-08 23:13 36.01596 -10.00180 32462 ft 391 kts 203°
2026-05-08 23:13 35.99070 -10.01394 32715 ft 388 kts 208°
2026-05-08 23:13 35.96732 -10.02947 32880 ft 387 kts 213°
2026-05-08 23:13 35.94449 -10.04706 32872 ft 387 kts 215°
2026-05-08 23:14 35.90040 -10.08517 32877 ft 387 kts 217°
2026-05-08 23:14 35.85720 -10.12487 32877 ft 387 kts 217°
2026-05-08 23:15 35.81413 -10.16466 32878 ft 387 kts 217°
2026-05-08 23:15 35.77135 -10.20414 32879 ft 388 kts 217°
2026-05-08 23:16 35.72814 -10.24396 32881 ft 388 kts 217°
2026-05-08 23:16 35.68496 -10.28379 32882 ft 388 kts 218°
2026-05-08 23:17 35.64193 -10.32382 32883 ft 389 kts 218°
2026-05-08 23:17 35.59866 -10.36384 32885 ft 389 kts 217°
2026-05-08 23:18 35.55562 -10.40350 32885 ft 389 kts 217°
2026-05-08 23:18 35.51223 -10.44338 32884 ft 390 kts 218°
2026-05-08 23:19 35.46883 -10.48321 32886 ft 391 kts 218°
2026-05-08 23:19 35.42548 -10.52293 32885 ft 391 kts 217°
2026-05-08 23:20 35.38191 -10.56278 32887 ft 391 kts 217°
2026-05-08 23:20 35.33817 -10.60274 32890 ft 392 kts 217°
2026-05-08 23:21 35.29446 -10.64262 32889 ft 392 kts 217°
2026-05-08 23:21 35.25060 -10.68257 32891 ft 393 kts 218°
2026-05-08 23:22 35.20705 -10.72220 32892 ft 393 kts 218°
2026-05-08 23:22 35.16316 -10.76208 32892 ft 394 kts 218°
2026-05-08 23:23 35.11914 -10.80201 32892 ft 394 kts 218°
2026-05-08 23:23 35.07516 -10.84186 32893 ft 394 kts 218°
2026-05-08 23:24 35.03143 -10.88143 32893 ft 394 kts 218°
2026-05-08 23:24 34.98734 -10.92127 32894 ft 394 kts 218°
2026-05-08 23:25 34.94322 -10.96108 32894 ft 395 kts 218°
2026-05-08 23:25 34.89902 -11.00091 32894 ft 395 kts 218°
2026-05-08 23:26 34.85495 -11.04083 32916 ft 395 kts 218°
2026-05-08 23:26 34.81105 -11.08033 32925 ft 395 kts 218°
2026-05-08 23:27 34.76678 -11.11998 32925 ft 395 kts 218°
2026-05-08 23:27 34.72249 -11.15959 32927 ft 395 kts 218°
2026-05-08 23:28 34.67822 -11.19914 32928 ft 395 kts 218°
2026-05-08 23:28 34.63422 -11.23842 32929 ft 395 kts 218°
2026-05-08 23:29 34.58998 -11.27808 32928 ft 396 kts 218°
2026-05-08 23:29 34.54564 -11.31778 32930 ft 396 kts 218°
2026-05-08 23:30 34.50127 -11.35742 32934 ft 396 kts 218°
2026-05-08 23:30 34.45716 -11.39678 32933 ft 396 kts 218°
2026-05-08 23:31 34.41277 -11.43634 32933 ft 396 kts 218°
2026-05-08 23:31 34.36831 -11.47590 32937 ft 397 kts 218°
2026-05-08 23:32 34.32393 -11.51562 32938 ft 397 kts 218°
2026-05-08 23:32 34.27961 -11.55533 32938 ft 396 kts 218°
2026-05-08 23:33 34.23552 -11.59465 32938 ft 396 kts 218°
2026-05-08 23:33 34.19109 -11.63415 32941 ft 396 kts 218°
2026-05-08 23:34 34.14664 -11.67359 32943 ft 397 kts 218°
2026-05-08 23:34 34.10234 -11.71282 32942 ft 398 kts 218°
2026-05-08 23:35 34.05772 -11.75229 32945 ft 398 kts 218°
2026-05-08 23:35 34.01307 -11.79178 32942 ft 398 kts 218°
2026-05-08 23:36 33.96848 -11.83108 32944 ft 397 kts 218°
2026-05-08 23:36 33.92382 -11.87042 32944 ft 398 kts 218°
2026-05-08 23:37 33.87947 -11.90943 32945 ft 398 kts 218°
2026-05-08 23:37 33.83479 -11.94869 32945 ft 398 kts 218°
2026-05-08 23:38 33.79008 -11.98793 32946 ft 398 kts 218°
2026-05-08 23:38 33.74543 -12.02706 32946 ft 398 kts 218°
2026-05-08 23:39 33.70067 -12.06623 32960 ft 398 kts 218°
2026-05-08 23:39 33.65619 -12.10510 32961 ft 398 kts 218°
2026-05-08 23:40 33.61141 -12.14419 32958 ft 398 kts 219°
2026-05-08 23:40 33.56659 -12.18325 32962 ft 399 kts 219°
2026-05-08 23:41 33.52171 -12.22233 32961 ft 399 kts 219°
2026-05-08 23:41 33.47678 -12.26139 32959 ft 399 kts 219°
2026-05-08 23:42 33.43177 -12.30047 32958 ft 400 kts 219°
2026-05-08 23:42 33.38668 -12.33957 32959 ft 400 kts 219°
2026-05-08 23:43 33.34185 -12.37839 32957 ft 401 kts 219°
2026-05-08 23:43 33.29669 -12.41746 32958 ft 401 kts 219°
2026-05-08 23:44 33.25149 -12.45650 32957 ft 401 kts 219°
2026-05-08 23:44 33.20622 -12.49556 32956 ft 401 kts 219°
2026-05-08 23:45 33.16119 -12.53435 32956 ft 402 kts 219°
2026-05-08 23:45 33.11585 -12.57337 32956 ft 402 kts 219°
2026-05-08 23:46 33.07059 -12.61252 32942 ft 402 kts 219°
2026-05-08 23:46 33.02519 -12.65148 32942 ft 402 kts 219°
2026-05-08 23:47 32.98002 -12.69013 32941 ft 402 kts 220°
2026-05-08 23:47 32.93455 -12.72897 32939 ft 402 kts 220°
2026-05-08 23:48 32.88917 -12.76771 32938 ft 402 kts 220°
2026-05-08 23:48 32.84369 -12.80652 32940 ft 402 kts 220°
2026-05-08 23:49 32.79836 -12.84489 32938 ft 403 kts 219°
2026-05-08 23:49 32.75269 -12.88342 32937 ft 403 kts 219°
2026-05-08 23:50 32.70703 -12.92191 32966 ft 403 kts 220°
2026-05-08 23:50 32.66128 -12.96042 32966 ft 403 kts 220°
2026-05-08 23:51 32.61583 -12.99864 32966 ft 403 kts 220°
2026-05-08 23:51 32.57009 -13.03708 32965 ft 403 kts 220°
2026-05-08 23:52 32.52438 -13.07580 32968 ft 404 kts 220°
2026-05-08 23:52 32.47860 -13.11443 32965 ft 405 kts 220°
2026-05-08 23:53 32.43270 -13.15300 32965 ft 405 kts 220°
2026-05-08 23:53 32.38705 -13.19128 32967 ft 405 kts 220°
2026-05-08 23:54 32.34104 -13.22980 32967 ft 406 kts 220°
2026-05-08 23:55 32.27185 -13.28765 32965 ft 407 kts 220°
2026-05-08 23:55 32.22567 -13.32617 32970 ft 407 kts 220°
2026-05-08 23:56 32.17967 -13.36450 32965 ft 407 kts 220°
2026-05-08 23:56 32.13337 -13.40303 32967 ft 408 kts 220°
2026-05-08 23:57 32.08699 -13.44158 32967 ft 408 kts 220°
2026-05-08 23:57 32.04055 -13.48014 32966 ft 408 kts 220°
2026-05-08 23:58 31.99444 -13.51834 32967 ft 408 kts 220°
2026-05-08 23:58 31.94803 -13.55679 32967 ft 408 kts 220°
2026-05-08 23:59 31.90147 -13.59526 32973 ft 409 kts 220°
2026-05-08 23:59 31.85492 -13.63371 32974 ft 409 kts 220°
2026-05-09 00:00 31.80833 -13.67213 32975 ft 409 kts 220°
2026-05-09 00:00 31.76202 -13.71025 32978 ft 409 kts 220°
2026-05-09 00:01 31.71548 -13.74860 32982 ft 409 kts 220°
2026-05-09 00:01 31.66883 -13.78687 32984 ft 409 kts 220°
2026-05-09 00:02 31.62219 -13.82522 32984 ft 409 kts 220°
2026-05-09 00:02 31.57551 -13.86352 32983 ft 409 kts 220°
2026-05-09 00:03 31.52929 -13.90157 32988 ft 409 kts 220°
2026-05-09 00:03 31.48268 -13.93970 32993 ft 409 kts 220°
2026-05-09 00:04 31.43597 -13.97781 32990 ft 409 kts 220°
2026-05-09 00:04 31.38930 -14.01581 32992 ft 409 kts 220°
2026-05-09 00:05 31.34268 -14.05373 33002 ft 412 kts 221°
2026-05-09 00:05 31.29558 -14.09215 33010 ft 413 kts 221°
2026-05-09 00:06 31.24857 -14.13071 33005 ft 412 kts 221°
2026-05-09 00:06 31.20161 -14.16924 33005 ft 413 kts 221°
2026-05-09 00:07 31.15462 -14.20784 33008 ft 413 kts 222°
2026-05-09 00:07 31.10805 -14.24627 33007 ft 413 kts 222°
2026-05-09 00:08 31.06091 -14.28483 33009 ft 414 kts 222°
2026-05-09 00:08 31.01371 -14.32328 33016 ft 414 kts 222°
2026-05-09 00:09 30.96684 -14.36152 33015 ft 414 kts 223°
2026-05-09 00:09 30.91885 -14.39989 33014 ft 426 kts 221°
2026-05-09 00:09 30.89207 -14.41566 33017 ft 437 kts 213°
2026-05-09 00:10 30.86354 -14.42864 33014 ft 443 kts 211°
2026-05-09 00:10 30.80437 -14.45158 33019 ft 452 kts 209°
2026-05-09 00:11 30.74444 -14.47332 33026 ft 456 kts 208°
2026-05-09 00:11 30.68408 -14.49541 33033 ft 454 kts 209°
2026-05-09 00:12 30.62397 -14.51744 33031 ft 452 kts 209°
2026-05-09 00:12 30.56404 -14.53944 33035 ft 451 kts 209°
2026-05-09 00:13 30.51441 -14.55773 33034 ft 451 kts 209°
2026-05-09 00:13 30.44483 -14.58319 33040 ft 450 kts 209°
2026-05-09 00:14 30.38518 -14.60511 33039 ft 449 kts 209°
2026-05-09 00:14 30.33568 -14.62321 33029 ft 450 kts 209°
2026-05-09 00:15 30.27599 -14.64500 33027 ft 450 kts 209°
2026-05-09 00:15 30.21625 -14.66680 33028 ft 450 kts 209°
2026-05-09 00:16 30.15661 -14.68848 33030 ft 449 kts 209°
2026-05-09 00:16 30.09738 -14.70999 33033 ft 449 kts 209°
2026-05-09 00:17 30.03770 -14.73166 33033 ft 450 kts 209°
2026-05-09 00:17 29.97805 -14.75332 33031 ft 449 kts 209°
2026-05-09 00:18 29.91858 -14.77487 33034 ft 447 kts 209°
2026-05-09 00:18 29.85967 -14.79616 33036 ft 446 kts 209°
2026-05-09 00:19 29.80039 -14.81758 33036 ft 447 kts 209°
2026-05-09 00:19 29.74104 -14.83902 33038 ft 447 kts 209°
2026-05-09 00:20 29.68163 -14.86034 33046 ft 447 kts 209°
2026-05-09 00:20 29.62263 -14.88163 33040 ft 447 kts 209°
2026-05-09 00:21 29.56321 -14.90299 33040 ft 447 kts 209°
2026-05-09 00:21 29.50381 -14.92430 33042 ft 448 kts 209°
2026-05-09 00:22 29.44431 -14.94563 33043 ft 448 kts 208°
2026-05-09 00:22 29.38521 -14.96677 33044 ft 448 kts 208°
2026-05-09 00:23 29.32530 -14.98823 33042 ft 448 kts 209°
2026-05-09 00:23 29.26606 -15.00941 33044 ft 450 kts 209°
2026-05-09 00:24 29.20622 -15.03078 33045 ft 451 kts 208°
2026-05-09 00:24 29.14635 -15.05213 33045 ft 451 kts 208°
2026-05-09 00:25 29.08655 -15.07335 33053 ft 450 kts 208°
2026-05-09 00:25 29.02711 -15.09451 33049 ft 450 kts 208°
2026-05-09 00:26 28.96726 -15.11580 33048 ft 450 kts 208°
2026-05-09 00:26 28.90749 -15.13698 33047 ft 449 kts 208°
2026-05-09 00:27 28.84781 -15.15809 33048 ft 449 kts 208°
2026-05-09 00:27 28.78815 -15.17918 33050 ft 450 kts 208°
2026-05-09 00:28 28.72874 -15.20023 33046 ft 450 kts 208°
2026-05-09 00:28 28.66889 -15.22136 33050 ft 450 kts 208°
2026-05-09 00:29 28.60904 -15.24245 33054 ft 450 kts 208°
2026-05-09 00:29 28.54921 -15.26352 33053 ft 450 kts 208°
2026-05-09 00:30 28.48929 -15.28461 33052 ft 451 kts 208°
2026-05-09 00:30 28.42982 -15.30550 33064 ft 451 kts 208°
2026-05-09 00:31 28.36991 -15.32658 33064 ft 451 kts 208°
2026-05-09 00:31 28.31000 -15.34763 33062 ft 451 kts 208°
2026-05-09 00:32 28.25007 -15.36860 33061 ft 451 kts 208°
2026-05-09 00:32 28.19001 -15.38952 33063 ft 451 kts 208°
2026-05-09 00:33 28.12998 -15.41052 33057 ft 451 kts 208°
2026-05-09 00:33 28.07227 -15.43579 33053 ft 438 kts 218°
2026-05-09 00:34 28.01932 -15.47047 33052 ft 435 kts 222°
2026-05-09 00:34 27.96742 -15.50926 33060 ft 431 kts 223°
2026-05-09 00:35 27.91736 -15.54648 33057 ft 430 kts 223°
2026-05-09 00:35 27.86711 -15.58336 33059 ft 431 kts 222°
2026-05-09 00:36 27.81671 -15.62027 33054 ft 432 kts 222°
2026-05-09 00:36 27.76663 -15.65689 33054 ft 432 kts 222°
2026-05-09 00:37 27.71615 -15.69381 33055 ft 433 kts 223°
2026-05-09 00:37 27.66562 -15.73075 33053 ft 433 kts 222°
2026-05-09 00:38 27.61515 -15.76754 33055 ft 432 kts 222°
2026-05-09 00:38 27.56473 -15.80432 33054 ft 431 kts 222°
2026-05-09 00:39 27.51460 -15.84081 33058 ft 432 kts 222°
2026-05-09 00:39 27.46409 -15.87757 33053 ft 433 kts 222°
2026-05-09 00:40 27.41363 -15.91438 33055 ft 432 kts 222°
2026-05-09 00:40 27.36312 -15.95129 33054 ft 433 kts 222°
2026-05-09 00:41 27.28758 -16.00620 33053 ft 433 kts 222°
2026-05-09 00:41 27.23676 -16.04308 33055 ft 436 kts 222°
2026-05-09 00:42 27.18575 -16.08006 33056 ft 437 kts 222°
2026-05-09 00:42 27.13478 -16.11709 33053 ft 437 kts 222°
2026-05-09 00:43 27.08368 -16.15408 33054 ft 437 kts 221°
2026-05-09 00:43 27.03285 -16.19074 33053 ft 437 kts 221°
2026-05-09 00:44 26.98172 -16.22753 33061 ft 437 kts 221°
2026-05-09 00:44 26.93046 -16.26443 33057 ft 438 kts 221°
2026-05-09 00:45 26.87910 -16.30144 33054 ft 439 kts 221°
2026-05-09 00:45 26.82793 -16.33798 33053 ft 439 kts 221°
2026-05-09 00:46 26.77636 -16.37479 33054 ft 440 kts 221°
2026-05-09 00:46 26.72475 -16.41157 33052 ft 440 kts 221°
2026-05-09 00:47 26.67308 -16.44838 33053 ft 441 kts 221°
2026-05-09 00:47 26.62136 -16.48522 33054 ft 441 kts 220°
2026-05-09 00:48 26.57005 -16.52191 33059 ft 441 kts 221°
2026-05-09 00:48 26.51831 -16.55886 33054 ft 441 kts 220°
2026-05-09 00:49 26.46662 -16.59566 33062 ft 441 kts 221°
2026-05-09 00:49 26.41488 -16.63255 33065 ft 442 kts 220°
2026-05-09 00:50 26.36337 -16.66906 33066 ft 442 kts 220°
2026-05-09 00:50 26.31147 -16.70578 33065 ft 442 kts 220°
2026-05-09 00:51 26.25956 -16.74249 33066 ft 442 kts 220°
2026-05-09 00:51 26.20763 -16.77914 33068 ft 442 kts 220°
2026-05-09 00:52 26.15577 -16.81591 33065 ft 442 kts 220°
2026-05-09 00:52 26.10426 -16.85233 33065 ft 442 kts 220°
2026-05-09 00:53 26.05238 -16.88898 33063 ft 442 kts 220°
2026-05-09 00:53 26.00046 -16.92558 33065 ft 442 kts 220°
2026-05-09 00:54 25.94845 -16.96228 33066 ft 444 kts 220°
2026-05-09 00:54 25.89655 -16.99885 33065 ft 445 kts 220°
2026-05-09 00:55 25.84432 -17.03588 33064 ft 445 kts 220°
2026-05-09 00:55 25.79207 -17.07277 33064 ft 445 kts 220°
2026-05-09 00:56 25.73982 -17.10951 33068 ft 445 kts 220°
2026-05-09 00:56 25.68779 -17.14612 33063 ft 446 kts 219°
2026-05-09 00:57 25.63538 -17.18290 33064 ft 446 kts 219°
2026-05-09 00:57 25.58296 -17.21958 33064 ft 446 kts 219°
2026-05-09 00:58 25.53058 -17.25636 33072 ft 446 kts 219°
2026-05-09 00:58 25.47812 -17.29305 33069 ft 447 kts 219°
2026-05-09 00:59 25.42596 -17.32955 33071 ft 447 kts 219°
2026-05-09 00:59 25.37340 -17.36623 33076 ft 447 kts 219°
2026-05-09 01:00 25.32080 -17.40290 33074 ft 447 kts 219°
2026-05-09 01:00 25.26818 -17.43961 33073 ft 447 kts 219°
2026-05-09 01:01 25.21593 -17.47614 33074 ft 448 kts 219°
2026-05-09 01:01 25.16326 -17.51277 33067 ft 447 kts 219°
2026-05-09 01:02 25.11059 -17.54932 33068 ft 447 kts 219°
2026-05-09 01:02 25.05781 -17.58593 33069 ft 448 kts 219°
2026-05-09 01:03 25.00504 -17.62248 33069 ft 449 kts 219°
2026-05-09 01:03 24.95247 -17.65879 33067 ft 449 kts 218°
2026-05-09 01:04 24.89949 -17.69522 33068 ft 449 kts 218°
2026-05-09 01:04 24.84649 -17.73168 33067 ft 450 kts 218°
2026-05-09 01:05 24.79334 -17.76815 33067 ft 450 kts 218°
2026-05-09 01:06 24.71410 -17.82261 33066 ft 450 kts 218°
2026-05-09 01:06 24.66091 -17.85919 33074 ft 450 kts 218°
2026-05-09 01:07 24.60782 -17.89575 33063 ft 451 kts 218°
2026-05-09 01:07 24.55463 -17.93235 33062 ft 451 kts 218°
2026-05-09 01:08 24.50171 -17.96865 33062 ft 452 kts 217°
2026-05-09 01:08 24.44838 -18.00514 33063 ft 451 kts 217°
2026-05-09 01:09 24.39508 -18.04160 33061 ft 452 kts 217°
2026-05-09 01:09 24.34161 -18.07807 33065 ft 453 kts 217°
2026-05-09 01:10 24.28848 -18.11434 33062 ft 453 kts 217°
2026-05-09 01:10 24.23496 -18.15080 33065 ft 453 kts 217°
2026-05-09 01:11 24.18149 -18.18717 33062 ft 452 kts 217°
2026-05-09 01:11 24.12810 -18.22350 33061 ft 452 kts 217°
2026-05-09 01:12 24.07498 -18.25961 33064 ft 452 kts 217°
2026-05-09 01:12 24.02150 -18.29595 33061 ft 452 kts 217°
2026-05-09 01:13 23.96805 -18.33217 33062 ft 453 kts 217°
2026-05-09 01:13 23.91451 -18.36847 33061 ft 453 kts 217°
2026-05-09 01:14 23.86079 -18.40478 33062 ft 454 kts 217°
2026-05-09 01:14 23.80708 -18.44113 33058 ft 455 kts 217°
2026-05-09 01:15 23.75368 -18.47716 33066 ft 454 kts 217°
2026-05-09 01:15 23.69988 -18.51346 33070 ft 454 kts 217°
2026-05-09 01:16 23.64610 -18.54977 33064 ft 455 kts 217°
2026-05-09 01:16 23.59219 -18.58609 33065 ft 455 kts 217°
2026-05-09 01:17 23.51162 -18.64026 33065 ft 456 kts 217°
2026-05-09 01:17 23.45760 -18.67656 33067 ft 457 kts 217°
2026-05-09 01:18 23.40344 -18.71286 33067 ft 457 kts 217°
2026-05-09 01:18 23.34932 -18.74919 33065 ft 457 kts 217°
2026-05-09 01:19 23.29550 -18.78523 33057 ft 458 kts 217°
2026-05-09 01:19 23.24115 -18.82155 33057 ft 459 kts 217°
2026-05-09 01:20 23.18681 -18.85796 33055 ft 459 kts 217°
2026-05-09 01:20 23.13241 -18.89431 33055 ft 459 kts 217°
2026-05-09 01:21 23.07832 -18.93040 33056 ft 460 kts 217°
2026-05-09 01:21 23.02372 -18.96675 33055 ft 461 kts 217°
2026-05-09 01:22 22.96912 -19.00316 33056 ft 461 kts 216°
2026-05-09 01:22 22.91450 -19.03954 33055 ft 461 kts 216°
2026-05-09 01:23 22.85982 -19.07586 33060 ft 461 kts 216°
2026-05-09 01:23 22.80540 -19.11204 33055 ft 462 kts 216°
2026-05-09 01:24 22.75048 -19.14843 33061 ft 462 kts 216°
2026-05-09 01:24 22.69564 -19.18482 33055 ft 463 kts 216°
2026-05-09 01:25 22.64067 -19.22112 33062 ft 463 kts 216°
2026-05-09 01:25 22.58608 -19.25730 33057 ft 463 kts 216°
2026-05-09 01:26 22.53111 -19.29367 33056 ft 464 kts 216°
2026-05-09 01:26 22.47603 -19.33005 33056 ft 464 kts 216°
2026-05-09 01:27 22.42088 -19.36644 33055 ft 465 kts 216°
2026-05-09 01:27 22.36568 -19.40274 33064 ft 464 kts 216°
2026-05-09 01:28 22.31093 -19.43898 33059 ft 465 kts 216°
2026-05-09 01:28 22.25561 -19.47542 33055 ft 466 kts 216°
2026-05-09 01:29 22.20020 -19.51179 33058 ft 466 kts 216°
2026-05-09 01:29 22.14473 -19.54820 33055 ft 467 kts 216°
2026-05-09 01:30 22.08922 -19.58457 33056 ft 467 kts 216°
2026-05-09 01:30 22.03407 -19.62073 33054 ft 467 kts 216°
2026-05-09 01:31 21.97845 -19.65700 33063 ft 467 kts 216°
2026-05-09 01:31 21.92276 -19.69342 33057 ft 469 kts 216°
2026-05-09 01:32 21.86689 -19.72984 33059 ft 469 kts 216°
2026-05-09 01:32 21.81145 -19.76598 33058 ft 469 kts 216°
2026-05-09 01:33 21.75572 -19.80245 33062 ft 469 kts 216°
2026-05-09 01:33 21.70003 -19.83891 33061 ft 469 kts 216°
2026-05-09 01:34 21.64424 -19.87532 33058 ft 469 kts 216°
2026-05-09 01:34 21.58843 -19.91167 33057 ft 469 kts 216°
2026-05-09 01:35 21.53296 -19.94772 33060 ft 469 kts 216°
2026-05-09 01:35 21.47714 -19.98401 33058 ft 470 kts 216°
2026-05-09 01:36 21.42120 -20.02034 33058 ft 470 kts 216°
2026-05-09 01:36 21.36527 -20.05660 33055 ft 470 kts 215°
2026-05-09 01:37 21.30931 -20.09285 33058 ft 470 kts 215°
2026-05-09 01:37 21.25360 -20.12890 33058 ft 471 kts 215°
2026-05-09 01:38 21.19748 -20.16522 33055 ft 471 kts 215°
2026-05-09 01:38 21.14133 -20.20151 33059 ft 472 kts 215°
2026-05-09 01:39 21.08510 -20.23776 33063 ft 472 kts 215°
2026-05-09 01:39 21.02926 -20.27381 33056 ft 472 kts 215°
2026-05-09 01:40 20.97291 -20.31014 33059 ft 472 kts 215°
2026-05-09 01:40 20.91665 -20.34633 33054 ft 473 kts 215°
2026-05-09 01:41 20.86026 -20.38258 33055 ft 473 kts 215°
2026-05-09 01:41 20.80423 -20.41865 33049 ft 473 kts 214°
2026-05-09 01:42 20.74776 -20.45495 33044 ft 474 kts 214°
2026-05-09 01:42 20.69129 -20.49120 33047 ft 474 kts 214°
2026-05-09 01:43 20.63470 -20.52751 33047 ft 474 kts 214°
2026-05-09 01:43 20.57857 -20.56356 33048 ft 474 kts 214°
2026-05-09 01:44 20.52196 -20.59977 33043 ft 475 kts 214°
2026-05-09 01:44 20.46528 -20.63596 33049 ft 475 kts 214°
2026-05-09 01:45 20.40853 -20.67220 33048 ft 475 kts 214°
2026-05-09 01:45 20.35217 -20.70818 33049 ft 475 kts 214°
2026-05-09 01:46 20.29535 -20.74424 33044 ft 475 kts 214°
2026-05-09 01:46 20.23852 -20.78029 33051 ft 475 kts 214°
2026-05-09 01:47 20.18173 -20.81631 33049 ft 475 kts 214°
2026-05-09 01:47 20.12488 -20.85232 33051 ft 476 kts 214°
2026-05-09 01:48 20.06836 -20.88812 33051 ft 476 kts 214°
2026-05-09 01:48 20.01153 -20.92425 33051 ft 476 kts 214°
2026-05-09 01:49 19.95462 -20.96033 33052 ft 477 kts 214°
2026-05-09 01:49 19.89757 -20.99643 33052 ft 478 kts 214°
2026-05-09 01:50 19.84078 -21.03230 33052 ft 478 kts 213°
2026-05-09 01:50 19.78361 -21.06840 33054 ft 478 kts 213°
2026-05-09 01:51 19.73609 -21.09838 33054 ft 478 kts 213°
2026-05-09 01:51 19.66929 -21.14048 33055 ft 478 kts 213°
2026-05-09 01:52 19.62174 -21.17042 33055 ft 478 kts 213°
2026-05-09 01:52 19.56459 -21.20644 33056 ft 478 kts 213°
2026-05-09 01:53 19.49802 -21.24823 33056 ft 478 kts 213°
2026-05-09 01:53 19.45049 -21.27808 33057 ft 478 kts 213°
2026-05-09 01:54 19.39327 -21.31401 33056 ft 478 kts 213°
2026-05-09 01:54 19.33601 -21.34995 33056 ft 479 kts 213°
2026-05-09 01:55 19.27869 -21.38592 33054 ft 479 kts 213°
2026-05-09 01:55 19.22174 -21.42151 33061 ft 478 kts 213°
2026-05-09 01:56 19.16447 -21.45734 33061 ft 478 kts 213°
2026-05-09 01:56 19.10715 -21.49324 33061 ft 479 kts 213°
2026-05-09 01:57 19.04978 -21.52910 33062 ft 479 kts 213°
2026-05-09 01:57 18.99274 -21.56462 33062 ft 479 kts 213°
2026-05-09 01:58 18.93528 -21.60042 33064 ft 480 kts 213°
2026-05-09 01:58 18.87782 -21.63625 33060 ft 480 kts 213°
2026-05-09 01:59 18.82025 -21.67207 33065 ft 480 kts 213°
2026-05-09 01:59 18.76267 -21.70788 33066 ft 480 kts 213°
2026-05-09 02:00 18.70550 -21.74348 33064 ft 481 kts 213°
2026-05-09 02:00 18.64784 -21.77932 33062 ft 481 kts 213°
2026-05-09 02:01 18.59016 -21.81515 33066 ft 481 kts 213°
2026-05-09 02:01 18.53242 -21.85087 33069 ft 482 kts 213°
2026-05-09 02:02 18.47467 -21.88669 33070 ft 482 kts 213°
2026-05-09 02:02 18.41735 -21.92241 33060 ft 482 kts 212°
2026-05-09 02:03 18.35942 -21.95808 33065 ft 482 kts 212°
2026-05-09 02:03 18.30159 -21.99377 33066 ft 482 kts 212°
2026-05-09 02:04 18.24369 -22.02952 33067 ft 483 kts 212°
2026-05-09 02:04 18.18582 -22.06523 33069 ft 483 kts 212°
2026-05-09 02:05 18.12826 -22.10078 33074 ft 483 kts 212°
2026-05-09 02:05 18.07037 -22.13654 33073 ft 483 kts 212°
2026-05-09 02:06 18.01244 -22.17211 33078 ft 483 kts 212°
2026-05-09 02:07 17.92545 -22.22558 33076 ft 483 kts 212°
2026-05-09 02:07 17.86793 -22.26094 33080 ft 483 kts 212°
2026-05-09 02:08 17.80996 -22.29650 33076 ft 483 kts 212°
2026-05-09 02:08 17.75197 -22.33204 33077 ft 483 kts 212°
2026-05-09 02:09 17.69399 -22.36759 33077 ft 483 kts 212°
2026-05-09 02:09 17.63600 -22.40307 33079 ft 483 kts 212°
2026-05-09 02:10 17.57842 -22.43837 33078 ft 483 kts 212°
2026-05-09 02:10 17.52042 -22.47399 33084 ft 483 kts 212°
2026-05-09 02:11 17.46240 -22.50949 33080 ft 483 kts 212°
2026-05-09 02:11 17.40436 -22.54498 33080 ft 483 kts 212°
2026-05-09 02:12 17.34664 -22.58026 33078 ft 484 kts 212°
2026-05-09 02:12 17.28845 -22.61572 33081 ft 484 kts 212°
2026-05-09 02:13 17.23035 -22.65114 33081 ft 484 kts 212°
2026-05-09 02:13 17.17250 -22.68639 33081 ft 484 kts 212°
2026-05-09 02:14 17.11433 -22.72181 33082 ft 484 kts 212°
2026-05-09 02:14 17.05601 -22.75731 33081 ft 484 kts 212°
2026-05-09 02:15 16.99781 -22.79276 33079 ft 485 kts 212°
2026-05-09 02:15 16.93952 -22.82823 33086 ft 485 kts 212°
2026-05-09 02:16 16.88155 -22.86339 33082 ft 485 kts 212°
2026-05-09 02:16 16.82320 -22.89878 33075 ft 485 kts 212°
2026-05-09 02:17 16.76483 -22.93412 33081 ft 485 kts 212°
2026-05-09 02:17 16.70582 -22.96846 33086 ft 486 kts 208°
2026-05-09 02:18 16.64469 -22.99882 33082 ft 487 kts 206°
2026-05-09 02:18 16.58312 -23.02823 33073 ft 487 kts 206°
2026-05-09 02:19 16.52209 -23.05802 33072 ft 487 kts 207°
2026-05-09 02:19 16.46081 -23.08825 33044 ft 488 kts 207°
2026-05-09 02:20 16.39953 -23.11863 33035 ft 488 kts 207°
2026-05-09 02:20 16.33831 -23.14903 33036 ft 487 kts 207°
2026-05-09 02:21 16.27742 -23.17923 33032 ft 488 kts 207°
2026-05-09 02:21 16.21613 -23.20962 33027 ft 488 kts 207°
2026-05-09 02:22 16.15481 -23.23995 33023 ft 488 kts 207°
2026-05-09 02:22 16.09387 -23.27009 33023 ft 488 kts 207°
2026-05-09 02:23 16.03252 -23.30039 33023 ft 488 kts 207°
2026-05-09 02:23 15.97120 -23.33067 33028 ft 488 kts 207°
2026-05-09 02:24 15.90986 -23.36095 33028 ft 488 kts 207°
2026-05-09 02:24 15.84861 -23.39118 33023 ft 487 kts 207°
2026-05-09 02:25 15.78773 -23.42116 33024 ft 487 kts 207°
2026-05-09 02:25 15.72643 -23.45133 33099 ft 489 kts 207°
2026-05-09 02:25 15.69572 -23.46649 33457 ft 487 kts 207°
2026-05-09 02:26 15.66518 -23.48150 33897 ft 484 kts 207°
2026-05-09 02:26 15.63480 -23.49646 34295 ft 482 kts 207°
2026-05-09 02:26 15.60461 -23.51133 34623 ft 480 kts 207°
2026-05-09 02:26 15.57483 -23.52594 34874 ft 481 kts 207°
2026-05-09 02:27 15.54453 -23.54080 35009 ft 481 kts 207°
2026-05-09 02:27 15.48399 -23.57052 35026 ft 481 kts 207°
2026-05-09 02:28 15.42362 -23.60016 35024 ft 480 kts 207°
2026-05-09 02:28 15.36326 -23.62981 35020 ft 480 kts 207°
2026-05-09 02:29 15.30326 -23.65920 35024 ft 480 kts 207°
2026-05-09 02:29 15.24302 -23.68871 35024 ft 479 kts 207°
2026-05-09 02:30 15.18275 -23.71822 35024 ft 479 kts 207°
2026-05-09 02:30 15.12249 -23.74771 35026 ft 479 kts 207°
2026-05-09 02:31 15.06263 -23.77700 35024 ft 479 kts 207°
2026-05-09 02:31 15.00243 -23.80645 35022 ft 478 kts 207°
2026-05-09 02:32 14.94229 -23.83581 35019 ft 478 kts 207°
2026-05-09 02:32 14.88217 -23.86513 35023 ft 478 kts 207°
2026-05-09 02:33 14.82201 -23.89447 35024 ft 478 kts 207°
2026-05-09 02:33 14.76221 -23.92362 35023 ft 478 kts 207°
2026-05-09 02:34 14.70210 -23.95285 35021 ft 478 kts 207°
2026-05-09 02:34 14.64199 -23.98213 35030 ft 478 kts 207°
2026-05-09 02:35 14.58187 -24.01140 35032 ft 478 kts 207°
2026-05-09 02:35 14.52211 -24.04049 35024 ft 479 kts 207°
2026-05-09 02:36 14.46190 -24.06975 35025 ft 478 kts 207°
2026-05-09 02:36 14.40164 -24.09901 35021 ft 478 kts 207°
2026-05-09 02:37 14.34153 -24.12820 35025 ft 478 kts 207°
2026-05-09 02:37 14.28130 -24.15741 35025 ft 478 kts 207°
2026-05-09 02:38 14.22154 -24.18639 35028 ft 479 kts 207°
2026-05-09 02:38 14.16127 -24.21561 35018 ft 479 kts 206°
2026-05-09 02:39 14.10101 -24.24479 35028 ft 478 kts 207°
2026-05-09 02:39 14.04085 -24.27393 35026 ft 478 kts 207°
2026-05-09 02:40 13.98104 -24.30287 35025 ft 478 kts 207°
2026-05-09 02:40 13.92081 -24.33205 35022 ft 478 kts 207°
2026-05-09 02:41 13.86064 -24.36111 35024 ft 477 kts 207°
2026-05-09 02:41 13.80093 -24.38993 35024 ft 477 kts 207°
2026-05-09 02:42 13.74088 -24.41890 35024 ft 477 kts 207°
2026-05-09 02:42 13.68081 -24.44787 35025 ft 477 kts 207°
2026-05-09 02:43 13.62060 -24.47657 35024 ft 477 kts 206°
2026-05-09 02:43 13.56049 -24.50521 35021 ft 476 kts 207°
2026-05-09 02:44 13.50036 -24.53386 35025 ft 475 kts 207°
2026-05-09 02:44 13.44043 -24.56240 35025 ft 475 kts 207°
2026-05-09 02:45 13.38091 -24.59074 35023 ft 475 kts 207°
2026-05-09 02:45 13.32102 -24.61934 35028 ft 474 kts 207°
2026-05-09 02:46 13.26128 -24.64782 35024 ft 474 kts 207°
2026-05-09 02:46 13.20153 -24.67626 35026 ft 473 kts 207°
2026-05-09 02:47 13.14226 -24.70445 35027 ft 473 kts 207°
2026-05-09 02:47 13.08264 -24.73279 35026 ft 472 kts 207°
2026-05-09 02:48 13.02305 -24.76112 35029 ft 471 kts 207°
2026-05-09 02:48 12.96355 -24.78936 35026 ft 471 kts 207°
2026-05-09 02:49 12.90456 -24.81736 35026 ft 470 kts 207°
2026-05-09 02:49 12.84515 -24.84554 35022 ft 470 kts 207°
2026-05-09 02:50 12.78579 -24.87369 35027 ft 470 kts 207°
2026-05-09 02:50 12.72648 -24.90178 35026 ft 470 kts 207°
2026-05-09 02:51 12.66760 -24.92967 35026 ft 469 kts 207°
2026-05-09 02:51 12.60837 -24.95771 35026 ft 469 kts 207°
2026-05-09 02:52 12.54911 -24.98575 35026 ft 469 kts 207°
2026-05-09 02:52 12.48990 -25.01376 35034 ft 468 kts 207°
2026-05-09 02:53 12.43111 -25.04154 35026 ft 469 kts 207°
2026-05-09 02:53 12.37187 -25.06951 35027 ft 469 kts 207°
2026-05-09 02:54 12.31254 -25.09753 35026 ft 469 kts 207°
2026-05-09 02:54 12.25330 -25.12548 35027 ft 469 kts 207°
2026-05-09 02:55 12.19399 -25.15347 35029 ft 469 kts 207°
2026-05-09 02:55 12.13473 -25.18140 35027 ft 469 kts 207°
2026-05-09 02:56 12.07584 -25.20915 35027 ft 469 kts 207°
2026-05-09 02:56 12.01664 -25.23702 35024 ft 469 kts 207°
2026-05-09 02:57 11.95744 -25.26490 35027 ft 469 kts 207°
2026-05-09 02:57 11.89814 -25.29280 35028 ft 468 kts 207°
2026-05-09 02:58 11.83939 -25.32043 35028 ft 468 kts 207°
2026-05-09 02:58 11.78022 -25.34824 35025 ft 468 kts 207°
2026-05-09 02:59 11.72099 -25.37608 35028 ft 468 kts 207°
2026-05-09 02:59 11.66183 -25.40386 35028 ft 469 kts 207°
2026-05-09 03:00 11.60298 -25.43148 35024 ft 468 kts 207°
2026-05-09 03:00 11.54379 -25.45925 35023 ft 468 kts 207°
2026-05-09 03:01 11.48455 -25.48704 35027 ft 468 kts 207°
2026-05-09 03:01 11.42535 -25.51479 35027 ft 469 kts 207°
2026-05-09 03:02 11.36609 -25.54255 35027 ft 469 kts 207°
2026-05-09 03:02 11.30720 -25.57014 35027 ft 469 kts 207°
2026-05-09 03:03 11.24801 -25.59784 35026 ft 468 kts 207°
2026-05-09 03:03 11.18886 -25.62552 35026 ft 468 kts 207°
2026-05-09 03:04 11.12978 -25.65315 35027 ft 468 kts 207°
2026-05-09 03:04 11.07061 -25.68082 35016 ft 468 kts 207°
2026-05-09 03:05 11.01191 -25.70824 35016 ft 468 kts 207°
2026-05-09 03:05 10.95270 -25.73589 35015 ft 468 kts 207°
2026-05-09 03:06 10.89354 -25.76351 35010 ft 468 kts 207°
2026-05-09 03:06 10.83446 -25.79109 35020 ft 467 kts 207°
2026-05-09 03:07 10.77577 -25.81847 35014 ft 467 kts 207°
2026-05-09 03:07 10.71671 -25.84597 35014 ft 467 kts 207°
2026-05-09 03:08 10.65770 -25.87348 35012 ft 467 kts 206°
2026-05-09 03:08 10.59858 -25.90103 35014 ft 467 kts 206°
2026-05-09 03:09 10.53990 -25.92836 35013 ft 467 kts 206°
2026-05-09 03:09 10.48061 -25.95596 35016 ft 470 kts 207°
2026-05-09 03:10 10.42107 -25.98367 35013 ft 471 kts 207°
2026-05-09 03:10 10.36155 -26.01135 35019 ft 470 kts 206°
2026-05-09 03:11 10.30194 -26.03906 35013 ft 471 kts 206°
2026-05-09 03:11 10.24276 -26.06656 35012 ft 471 kts 206°
2026-05-09 03:12 10.18312 -26.09426 35012 ft 471 kts 206°
2026-05-09 03:12 10.12353 -26.12192 35013 ft 471 kts 206°
2026-05-09 03:13 10.03427 -26.16335 35006 ft 470 kts 206°
2026-05-09 03:13 9.97510 -26.19079 35011 ft 471 kts 206°
2026-05-09 03:14 9.91553 -26.21841 35011 ft 471 kts 206°
2026-05-09 03:14 9.85600 -26.24602 35014 ft 471 kts 206°
2026-05-09 03:15 9.79675 -26.27347 35011 ft 471 kts 206°
2026-05-09 03:15 9.73708 -26.30109 34994 ft 472 kts 206°
2026-05-09 03:16 9.67731 -26.32877 34994 ft 472 kts 206°
2026-05-09 03:16 9.61757 -26.35640 34993 ft 472 kts 206°
2026-05-09 03:17 9.55779 -26.38405 34993 ft 472 kts 206°
2026-05-09 03:17 9.49836 -26.41153 34992 ft 474 kts 206°
2026-05-09 03:18 9.43836 -26.43926 34992 ft 474 kts 206°
2026-05-09 03:18 9.37834 -26.46700 34991 ft 475 kts 206°
2026-05-09 03:19 9.31824 -26.49474 34991 ft 475 kts 206°
2026-05-09 03:19 9.25807 -26.52253 34990 ft 475 kts 206°
2026-05-09 03:20 9.19830 -26.55011 34991 ft 476 kts 206°
2026-05-09 03:20 9.13800 -26.57792 34989 ft 476 kts 206°
2026-05-09 03:21 9.07769 -26.60573 34989 ft 477 kts 206°
2026-05-09 03:21 9.01729 -26.63358 34989 ft 477 kts 206°
2026-05-09 03:22 8.95723 -26.66125 34988 ft 477 kts 206°
2026-05-09 03:22 8.89671 -26.68913 34988 ft 478 kts 206°
2026-05-09 03:23 8.83618 -26.71702 34998 ft 478 kts 206°
2026-05-09 03:23 8.77572 -26.74490 35012 ft 478 kts 206°
2026-05-09 03:24 8.71555 -26.77259 35012 ft 477 kts 206°
2026-05-09 03:24 8.65515 -26.80036 35009 ft 477 kts 206°
2026-05-09 03:25 8.59461 -26.82817 35013 ft 478 kts 206°
2026-05-09 03:25 8.53394 -26.85605 35008 ft 479 kts 206°
2026-05-09 03:26 8.47359 -26.88375 35009 ft 479 kts 206°
2026-05-09 03:26 8.41293 -26.91162 35011 ft 478 kts 205°
2026-05-09 03:27 8.35232 -26.93943 35006 ft 479 kts 206°
2026-05-09 03:27 8.29159 -26.96729 35008 ft 480 kts 205°
2026-05-09 03:28 8.23088 -26.99518 35002 ft 479 kts 206°
2026-05-09 03:28 8.17056 -27.02286 35007 ft 480 kts 205°
2026-05-09 03:29 8.10996 -27.05068 35008 ft 478 kts 205°
2026-05-09 03:29 8.04921 -27.07851 35006 ft 480 kts 205°
2026-05-09 03:30 7.98834 -27.10640 35006 ft 481 kts 205°
2026-05-09 03:30 7.92732 -27.13438 35002 ft 482 kts 205°
2026-05-09 03:31 7.86677 -27.16216 34997 ft 481 kts 205°
2026-05-09 03:31 7.80576 -27.19010 35002 ft 482 kts 205°
2026-05-09 03:32 7.74454 -27.21807 35000 ft 484 kts 205°
2026-05-09 03:32 7.68368 -27.24593 35001 ft 483 kts 205°
2026-05-09 03:33 7.62257 -27.27386 35000 ft 482 kts 205°
2026-05-09 03:33 7.56137 -27.30184 34999 ft 483 kts 205°
2026-05-09 03:34 7.50017 -27.32981 34998 ft 483 kts 205°
2026-05-09 03:34 7.43896 -27.35779 34997 ft 483 kts 205°
2026-05-09 03:35 7.37816 -27.38557 34998 ft 484 kts 205°
2026-05-09 03:35 7.31686 -27.41359 35000 ft 483 kts 205°
2026-05-09 03:36 7.25566 -27.44156 35003 ft 483 kts 204°
2026-05-09 03:36 7.19443 -27.46949 35001 ft 483 kts 204°
2026-05-09 03:37 7.13351 -27.49728 34996 ft 484 kts 204°
2026-05-09 03:37 7.07216 -27.52531 34995 ft 484 kts 204°
2026-05-09 03:38 7.01089 -27.55324 34993 ft 484 kts 204°
2026-05-09 03:38 6.94943 -27.58123 34996 ft 485 kts 204°
2026-05-09 03:39 6.88829 -27.60911 34992 ft 485 kts 204°
2026-05-09 03:39 6.82680 -27.63708 34991 ft 485 kts 204°
2026-05-09 03:40 6.76528 -27.66508 34990 ft 485 kts 204°
2026-05-09 03:40 6.70369 -27.69308 34993 ft 486 kts 204°
2026-05-09 03:41 6.64252 -27.72087 34990 ft 486 kts 204°
2026-05-09 03:41 6.58082 -27.74890 34989 ft 487 kts 204°
2026-05-09 03:42 6.51915 -27.77694 34993 ft 487 kts 204°
2026-05-09 03:42 6.45736 -27.80504 35005 ft 486 kts 204°
2026-05-09 03:43 6.39561 -27.83310 34994 ft 488 kts 204°
2026-05-09 03:43 6.33384 -27.86117 34993 ft 487 kts 204°
2026-05-09 03:44 6.27244 -27.88905 34992 ft 488 kts 204°
2026-05-09 03:44 6.21060 -27.91713 34992 ft 488 kts 204°
2026-05-09 03:45 6.14875 -27.94520 34991 ft 488 kts 204°
2026-05-09 03:45 6.08680 -27.97330 34990 ft 488 kts 204°
2026-05-09 03:46 6.02537 -28.00118 34990 ft 488 kts 204°
2026-05-09 03:46 5.96351 -28.02924 34990 ft 488 kts 204°
2026-05-09 03:47 5.90160 -28.05730 34989 ft 488 kts 204°
2026-05-09 03:47 5.83977 -28.08534 34993 ft 488 kts 204°
2026-05-09 03:48 5.77831 -28.11319 34993 ft 488 kts 204°
2026-05-09 03:48 5.71642 -28.14123 34988 ft 488 kts 204°
2026-05-09 03:49 5.65445 -28.16929 34989 ft 488 kts 204°
2026-05-09 03:49 5.59252 -28.19734 34988 ft 489 kts 204°
2026-05-09 03:50 5.53054 -28.22541 34989 ft 489 kts 204°
2026-05-09 03:50 5.46893 -28.25329 34988 ft 489 kts 204°
2026-05-09 03:51 5.40686 -28.28138 34986 ft 490 kts 204°
2026-05-09 03:51 5.34479 -28.30946 34987 ft 490 kts 204°
2026-05-09 03:52 5.28299 -28.33741 34990 ft 490 kts 204°
2026-05-09 03:52 5.22080 -28.36553 34986 ft 491 kts 204°
2026-05-09 03:53 5.15856 -28.39368 34988 ft 491 kts 204°
2026-05-09 03:53 5.09626 -28.42185 34984 ft 491 kts 204°
2026-05-09 03:54 5.03438 -28.44982 34986 ft 492 kts 203°
2026-05-09 03:54 4.97199 -28.47799 34985 ft 492 kts 203°
2026-05-09 03:55 4.90951 -28.50622 34984 ft 493 kts 203°
2026-05-09 03:55 4.84695 -28.53447 34984 ft 493 kts 203°
2026-05-09 03:56 4.78443 -28.56271 34984 ft 493 kts 203°
2026-05-09 03:56 4.72230 -28.59076 34983 ft 493 kts 203°
2026-05-09 03:57 4.65971 -28.61903 34986 ft 493 kts 203°
2026-05-09 03:57 4.59714 -28.64725 34980 ft 493 kts 203°
2026-05-09 03:58 4.53450 -28.67552 34981 ft 494 kts 203°
2026-05-09 03:58 4.47223 -28.70360 34983 ft 494 kts 203°
2026-05-09 03:59 4.40956 -28.73187 34985 ft 494 kts 203°
2026-05-09 03:59 4.34685 -28.76015 34982 ft 495 kts 203°
2026-05-09 04:00 4.28411 -28.78844 34981 ft 495 kts 203°
2026-05-09 04:00 4.22135 -28.81675 34982 ft 494 kts 203°
2026-05-09 04:01 4.15859 -28.84502 34980 ft 494 kts 203°
2026-05-09 04:01 4.09626 -28.87310 34984 ft 495 kts 203°
2026-05-09 04:02 4.03345 -28.90142 34983 ft 495 kts 203°
2026-05-09 04:02 3.97066 -28.92970 34981 ft 495 kts 203°
2026-05-09 04:03 3.90777 -28.95803 34981 ft 496 kts 203°
2026-05-09 04:03 3.84473 -28.98641 34982 ft 497 kts 203°
2026-05-09 04:04 3.78204 -29.01464 34982 ft 497 kts 203°
2026-05-09 04:04 3.71893 -29.04306 34981 ft 497 kts 203°
2026-05-09 04:05 3.65581 -29.07148 34980 ft 497 kts 203°
2026-05-09 04:05 3.59271 -29.09988 34981 ft 497 kts 203°
2026-05-09 04:06 3.52956 -29.12830 34980 ft 497 kts 203°
2026-05-09 04:06 3.46687 -29.15651 34980 ft 497 kts 203°
2026-05-09 04:07 3.40374 -29.18492 34981 ft 497 kts 203°
2026-05-09 04:07 3.34056 -29.21334 34980 ft 498 kts 203°
2026-05-09 04:08 3.27742 -29.24176 34980 ft 498 kts 203°
2026-05-09 04:08 3.21476 -29.26997 34983 ft 497 kts 203°
2026-05-09 04:09 3.15154 -29.29840 34979 ft 498 kts 203°
2026-05-09 04:09 3.08843 -29.32681 34976 ft 498 kts 203°
2026-05-09 04:10 3.02527 -29.35528 34982 ft 497 kts 203°
2026-05-09 04:10 2.96253 -29.38351 34977 ft 498 kts 203°
2026-05-09 04:11 2.89939 -29.41191 34977 ft 498 kts 203°
2026-05-09 04:11 2.83617 -29.44034 34979 ft 498 kts 203°
2026-05-09 04:12 2.77295 -29.46878 34977 ft 498 kts 203°
2026-05-09 04:12 2.70974 -29.49721 34977 ft 498 kts 203°
2026-05-09 04:13 2.64692 -29.52546 34978 ft 498 kts 203°
2026-05-09 04:13 2.58366 -29.55391 34977 ft 499 kts 203°
2026-05-09 04:14 2.52034 -29.58238 34978 ft 499 kts 203°
2026-05-09 04:14 2.45701 -29.61085 34975 ft 499 kts 203°
2026-05-09 04:15 2.39415 -29.63911 34975 ft 498 kts 203°
2026-05-09 04:15 2.33095 -29.66751 34978 ft 498 kts 203°
2026-05-09 04:16 2.26776 -29.69591 34975 ft 498 kts 203°
2026-05-09 04:16 2.20493 -29.72415 34975 ft 499 kts 203°
2026-05-09 04:17 2.14160 -29.75261 34976 ft 499 kts 203°
2026-05-09 04:17 2.07827 -29.78106 34975 ft 499 kts 203°
2026-05-09 04:18 2.01502 -29.80948 34974 ft 499 kts 203°
2026-05-09 04:18 1.95212 -29.83774 34978 ft 499 kts 203°
2026-05-09 04:19 1.88879 -29.86619 34956 ft 499 kts 203°
2026-05-09 04:19 1.82547 -29.89462 34954 ft 499 kts 203°
2026-05-09 04:20 1.76219 -29.92303 34953 ft 499 kts 203°
2026-05-09 04:20 1.69887 -29.95148 34952 ft 499 kts 203°
2026-05-09 04:21 1.63592 -29.97975 34951 ft 499 kts 203°
2026-05-09 04:22 1.54103 -30.02238 34948 ft 498 kts 203°
2026-05-09 04:22 1.47778 -30.05077 34953 ft 499 kts 203°
2026-05-09 04:23 1.42516 -30.07441 34951 ft 499 kts 203°
2026-05-09 04:23 1.36184 -30.10284 34950 ft 499 kts 203°
2026-05-09 04:24 1.28834 -30.13583 34949 ft 498 kts 203°
2026-05-09 04:24 1.22505 -30.16421 34950 ft 498 kts 203°
2026-05-09 04:25 1.17250 -30.18776 34949 ft 498 kts 204°
2026-05-09 04:25 1.10925 -30.21612 34949 ft 498 kts 204°
2026-05-09 04:26 1.04599 -30.24447 34946 ft 498 kts 204°
2026-05-09 04:26 0.98292 -30.27273 34949 ft 497 kts 203°
2026-05-09 04:27 0.92007 -30.30085 34948 ft 498 kts 204°
2026-05-09 04:27 0.85691 -30.32922 34947 ft 498 kts 204°
2026-05-09 04:28 0.79373 -30.35759 34947 ft 498 kts 204°
2026-05-09 04:28 0.73063 -30.38589 34948 ft 498 kts 204°
2026-05-09 04:29 0.66765 -30.41410 34947 ft 498 kts 204°
2026-05-09 04:29 0.60439 -30.44245 34923 ft 498 kts 204°
2026-05-09 04:30 0.54110 -30.47083 34921 ft 498 kts 204°
2026-05-09 04:30 0.47795 -30.49917 34922 ft 497 kts 204°
2026-05-09 04:31 0.41479 -30.52750 34920 ft 497 kts 204°
2026-05-09 04:31 0.35211 -30.55562 34920 ft 498 kts 204°
2026-05-09 04:32 0.28887 -30.58398 34920 ft 498 kts 204°
2026-05-09 04:32 0.22576 -30.61227 34919 ft 498 kts 204°
2026-05-09 04:33 0.16257 -30.64059 34919 ft 498 kts 204°
2026-05-09 04:33 0.09938 -30.66887 34916 ft 498 kts 204°
2026-05-09 04:34 0.03665 -30.69700 34918 ft 498 kts 204°
2026-05-09 04:34 -0.02655 -30.72531 34919 ft 498 kts 204°
2026-05-09 04:35 -0.08972 -30.75366 34917 ft 498 kts 204°
2026-05-09 04:35 -0.15254 -30.78185 34915 ft 498 kts 204°
2026-05-09 04:36 -0.21574 -30.81017 34917 ft 498 kts 204°
2026-05-09 04:36 -0.27894 -30.83852 34916 ft 498 kts 204°
2026-05-09 04:37 -0.34218 -30.86683 34915 ft 498 kts 204°
2026-05-09 04:37 -0.40541 -30.89523 34915 ft 498 kts 204°
2026-05-09 04:38 -0.46815 -30.92337 34915 ft 498 kts 204°
2026-05-09 04:38 -0.53179 -30.95188 34918 ft 498 kts 204°
2026-05-09 04:39 -0.59465 -30.98009 34914 ft 499 kts 204°
2026-05-09 04:39 -0.65800 -31.00850 34913 ft 499 kts 204°
2026-05-09 04:40 -0.72138 -31.03692 34910 ft 499 kts 204°
2026-05-09 04:40 -0.78475 -31.06535 34913 ft 499 kts 204°
2026-05-09 04:41 -0.84768 -31.09355 34912 ft 499 kts 204°
2026-05-09 04:41 -0.91155 -31.12062 34913 ft 499 kts 202°
2026-05-09 04:42 -0.97558 -31.14744 34911 ft 499 kts 203°
2026-05-09 04:42 -1.03957 -31.17446 34912 ft 499 kts 203°
2026-05-09 04:43 -1.10309 -31.20133 34911 ft 499 kts 203°
2026-05-09 04:43 -1.16699 -31.22837 34912 ft 498 kts 203°
2026-05-09 04:44 -1.23084 -31.25541 34911 ft 498 kts 203°
2026-05-09 04:44 -1.29455 -31.28239 34910 ft 498 kts 203°
2026-05-09 04:45 -1.35836 -31.30941 34910 ft 498 kts 203°
2026-05-09 04:45 -1.42216 -31.33642 34910 ft 498 kts 203°
2026-05-09 04:46 -1.48555 -31.36328 34909 ft 498 kts 203°
2026-05-09 04:46 -1.54936 -31.39031 34909 ft 498 kts 203°
2026-05-09 04:47 -1.61313 -31.41733 34909 ft 498 kts 203°
2026-05-09 04:47 -1.67691 -31.44436 34909 ft 498 kts 203°
2026-05-09 04:48 -1.74026 -31.47120 34909 ft 498 kts 203°
2026-05-09 04:48 -1.80396 -31.49818 34908 ft 497 kts 203°
2026-05-09 04:49 -1.86757 -31.52512 34909 ft 496 kts 203°
2026-05-09 04:49 -1.93124 -31.55196 34916 ft 496 kts 203°
2026-05-09 04:50 -1.99479 -31.57898 34908 ft 497 kts 203°
2026-05-09 04:50 -2.05800 -31.60583 34907 ft 496 kts 203°
2026-05-09 04:51 -2.12156 -31.63279 34907 ft 496 kts 203°
2026-05-09 04:51 -2.18514 -31.65975 34908 ft 496 kts 203°
2026-05-09 04:52 -2.24869 -31.68670 34907 ft 496 kts 203°
2026-05-09 04:52 -2.31189 -31.71350 34907 ft 496 kts 203°
2026-05-09 04:53 -2.37548 -31.74046 34907 ft 496 kts 203°
2026-05-09 04:53 -2.43900 -31.76739 34906 ft 496 kts 203°
2026-05-09 04:54 -2.50266 -31.79438 34907 ft 497 kts 203°
2026-05-09 04:54 -2.56634 -31.82139 34910 ft 497 kts 203°
2026-05-09 04:55 -2.62967 -31.84827 34906 ft 497 kts 203°
2026-05-09 04:55 -2.69337 -31.87531 34906 ft 498 kts 203°
2026-05-09 04:56 -2.75714 -31.90237 34907 ft 498 kts 203°
2026-05-09 04:56 -2.82096 -31.92945 34905 ft 498 kts 203°
2026-05-09 04:57 -2.88479 -31.95655 34906 ft 498 kts 204°
2026-05-09 04:57 -2.94820 -31.98346 34907 ft 499 kts 204°
2026-05-09 04:58 -3.01209 -32.01058 34907 ft 498 kts 204°
2026-05-09 04:58 -3.07572 -32.03760 34902 ft 497 kts 204°
2026-05-09 04:59 -3.13933 -32.06462 34906 ft 497 kts 204°
2026-05-09 04:59 -3.20256 -32.09149 34906 ft 497 kts 204°
2026-05-09 05:00 -3.26627 -32.11854 34908 ft 497 kts 204°
2026-05-09 05:00 -3.32851 -32.14875 34906 ft 497 kts 209°
2026-05-09 05:01 -3.38915 -32.18206 34908 ft 497 kts 210°
2026-05-09 05:01 -3.44963 -32.21462 34908 ft 497 kts 209°
2026-05-09 05:02 -3.51073 -32.24700 34906 ft 497 kts 209°
2026-05-09 05:02 -3.57188 -32.27932 34905 ft 498 kts 209°
2026-05-09 05:03 -3.63311 -32.31164 34906 ft 498 kts 209°
2026-05-09 05:03 -3.69391 -32.34377 34905 ft 497 kts 209°
2026-05-09 05:04 -3.75554 -32.37633 34910 ft 497 kts 209°
2026-05-09 05:04 -3.81629 -32.40846 34907 ft 497 kts 209°
2026-05-09 05:05 -3.87753 -32.44079 34906 ft 497 kts 208°
2026-05-09 05:05 -3.93916 -32.47235 34905 ft 497 kts 208°
2026-05-09 05:06 -4.00077 -32.50394 34903 ft 497 kts 208°
2026-05-09 05:06 -4.06232 -32.53559 34905 ft 498 kts 208°
2026-05-09 05:07 -4.12357 -32.56711 34906 ft 498 kts 208°
2026-05-09 05:07 -4.18514 -32.59879 34905 ft 498 kts 208°
2026-05-09 05:08 -4.24672 -32.63048 34906 ft 498 kts 208°
2026-05-09 05:08 -4.30830 -32.66219 34907 ft 498 kts 208°
2026-05-09 05:09 -4.36994 -32.69391 34907 ft 497 kts 208°
2026-05-09 05:09 -4.43105 -32.72539 34907 ft 498 kts 208°
2026-05-09 05:10 -4.49261 -32.75712 34906 ft 497 kts 208°
2026-05-09 05:10 -4.55414 -32.78884 34908 ft 497 kts 208°
2026-05-09 05:11 -4.61566 -32.82055 34907 ft 497 kts 208°
2026-05-09 05:11 -4.67728 -32.85217 34908 ft 497 kts 208°
2026-05-09 05:12 -4.73846 -32.88360 34909 ft 497 kts 208°
2026-05-09 05:12 -4.80001 -32.91525 34909 ft 498 kts 208°
2026-05-09 05:13 -4.86165 -32.94694 34907 ft 498 kts 208°
2026-05-09 05:13 -4.92325 -32.97862 34910 ft 498 kts 208°
2026-05-09 05:14 -4.98443 -33.01006 34911 ft 497 kts 208°
2026-05-09 05:14 -5.04603 -33.04175 34913 ft 497 kts 208°
2026-05-09 05:15 -5.10752 -33.07338 34913 ft 497 kts 208°
2026-05-09 05:15 -5.16908 -33.10507 34913 ft 497 kts 208°
2026-05-09 05:16 -5.23058 -33.13673 34915 ft 497 kts 208°
2026-05-09 05:16 -5.29171 -33.16820 34916 ft 497 kts 208°
2026-05-09 05:17 -5.35321 -33.19988 34916 ft 497 kts 208°
2026-05-09 05:17 -5.41471 -33.23156 34917 ft 497 kts 208°
2026-05-09 05:18 -5.47619 -33.26324 34918 ft 496 kts 208°
2026-05-09 05:18 -5.53754 -33.29484 34921 ft 496 kts 208°
2026-05-09 05:19 -5.59848 -33.32626 34919 ft 496 kts 209°
2026-05-09 05:19 -5.65983 -33.35789 34920 ft 496 kts 209°
2026-05-09 05:20 -5.72117 -33.38953 34921 ft 495 kts 209°
2026-05-09 05:20 -5.78238 -33.42111 34921 ft 494 kts 209°
2026-05-09 05:21 -5.84317 -33.45246 34931 ft 494 kts 209°
2026-05-09 05:21 -5.90427 -33.48400 34928 ft 494 kts 209°
2026-05-09 05:22 -5.96541 -33.51557 34929 ft 494 kts 209°
2026-05-09 05:22 -6.02647 -33.54711 34929 ft 493 kts 209°
2026-05-09 05:23 -6.08708 -33.57841 34930 ft 493 kts 209°
2026-05-09 05:23 -6.14863 -33.61021 34933 ft 493 kts 209°
2026-05-09 05:24 -6.20921 -33.64152 34930 ft 493 kts 209°
2026-05-09 05:24 -6.27028 -33.67309 34931 ft 493 kts 209°
2026-05-09 05:25 -6.33134 -33.70465 34932 ft 493 kts 209°
2026-05-09 05:25 -6.42247 -33.75179 34932 ft 494 kts 209°
2026-05-09 05:26 -6.48358 -33.78341 34929 ft 494 kts 209°
2026-05-09 05:26 -6.54462 -33.81500 34930 ft 494 kts 209°
2026-05-09 05:27 -6.60573 -33.84663 34934 ft 494 kts 209°
2026-05-09 05:27 -6.66646 -33.87808 34932 ft 494 kts 209°
2026-05-09 05:28 -6.72765 -33.90978 34933 ft 495 kts 209°
2026-05-09 05:28 -6.78885 -33.94149 34934 ft 495 kts 209°
2026-05-09 05:29 -6.85010 -33.97323 34934 ft 495 kts 209°
2026-05-09 05:29 -6.91136 -34.00500 34934 ft 496 kts 209°
2026-05-09 05:30 -6.97219 -34.03654 34934 ft 494 kts 210°
2026-05-09 05:30 -7.03332 -34.06825 34933 ft 494 kts 210°
2026-05-09 05:31 -7.09446 -34.09997 34934 ft 495 kts 210°
2026-05-09 05:31 -7.15569 -34.13176 34934 ft 495 kts 210°
2026-05-09 05:32 -7.21650 -34.16333 34934 ft 495 kts 210°
2026-05-09 05:32 -7.27776 -34.19514 34937 ft 495 kts 210°
2026-05-09 05:33 -7.33900 -34.22697 34934 ft 496 kts 210°
2026-05-09 05:33 -7.40028 -34.25881 34934 ft 496 kts 210°
2026-05-09 05:34 -7.46161 -34.29070 34936 ft 496 kts 210°
2026-05-09 05:34 -7.52256 -34.32236 34935 ft 496 kts 210°
2026-05-09 05:35 -7.58383 -34.35424 34936 ft 496 kts 210°
2026-05-09 05:35 -7.64520 -34.38620 34935 ft 496 kts 210°
2026-05-09 05:36 -7.70654 -34.41814 34934 ft 496 kts 210°
2026-05-09 05:36 -7.76752 -34.44992 34935 ft 496 kts 210°
2026-05-09 05:37 -7.82835 -34.48278 34934 ft 496 kts 211°
2026-05-09 05:37 -7.88913 -34.51570 34935 ft 496 kts 211°
2026-05-09 05:38 -7.94998 -34.54862 34934 ft 496 kts 211°
2026-05-09 05:38 -8.01113 -34.58172 34935 ft 496 kts 211°
2026-05-09 05:39 -8.07180 -34.61456 34935 ft 495 kts 211°
2026-05-09 05:39 -8.13273 -34.64729 34933 ft 495 kts 209°
2026-05-09 05:40 -8.19585 -34.67536 34936 ft 497 kts 204°
2026-05-09 05:40 -8.26117 -34.70106 34936 ft 497 kts 204°
2026-05-09 05:41 -8.32500 -34.72693 34936 ft 497 kts 205°
2026-05-09 05:41 -8.38903 -34.75341 34936 ft 497 kts 205°
2026-05-09 05:42 -8.45291 -34.77993 34937 ft 496 kts 205°
2026-05-09 05:42 -8.51734 -34.80667 34936 ft 496 kts 205°
2026-05-09 05:43 -8.58028 -34.83284 34938 ft 496 kts 205°
2026-05-09 05:43 -8.64408 -34.85937 34937 ft 496 kts 205°
2026-05-09 05:44 -8.70791 -34.88594 34947 ft 496 kts 205°
2026-05-09 05:44 -8.77173 -34.91250 34950 ft 496 kts 205°
2026-05-09 05:45 -8.83459 -34.93866 34953 ft 496 kts 205°
2026-05-09 05:45 -8.89879 -34.96542 34954 ft 495 kts 205°
2026-05-09 05:46 -8.96250 -34.99199 34956 ft 495 kts 205°
2026-05-09 05:46 -9.02613 -35.01853 34957 ft 495 kts 205°
2026-05-09 05:47 -9.08947 -35.04805 34959 ft 493 kts 211°
2026-05-09 05:47 -9.14876 -35.08237 34959 ft 491 kts 214°
2026-05-09 05:48 -9.20695 -35.11745 34961 ft 490 kts 213°
2026-05-09 05:48 -9.26594 -35.15209 34962 ft 490 kts 213°
2026-05-09 05:49 -9.32475 -35.18627 34963 ft 490 kts 213°
2026-05-09 05:49 -9.38381 -35.22046 34963 ft 490 kts 213°
2026-05-09 05:50 -9.44297 -35.25466 34959 ft 489 kts 213°
2026-05-09 05:50 -9.50205 -35.28887 34964 ft 489 kts 213°
2026-05-09 05:51 -9.56103 -35.32303 34962 ft 488 kts 213°
2026-05-09 05:51 -9.61963 -35.35699 34962 ft 488 kts 213°
2026-05-09 05:52 -9.67854 -35.39114 34963 ft 488 kts 213°
2026-05-09 05:52 -9.73741 -35.42528 34962 ft 487 kts 213°
2026-05-09 05:53 -9.79620 -35.45939 34964 ft 487 kts 213°
2026-05-09 05:53 -9.85464 -35.49330 35107 ft 487 kts 213°
2026-05-09 05:54 -9.88385 -35.51026 35596 ft 482 kts 213°
2026-05-09 05:54 -9.91288 -35.52713 36066 ft 479 kts 213°
2026-05-09 05:54 -9.94170 -35.54387 36400 ft 477 kts 213°
2026-05-09 05:54 -9.97046 -35.56058 36730 ft 476 kts 213°
2026-05-09 05:55 -9.99914 -35.57725 36948 ft 476 kts 213°
2026-05-09 05:55 -10.02792 -35.59397 36958 ft 476 kts 213°
2026-05-09 05:55 -10.07553 -35.62165 36961 ft 474 kts 213°
2026-05-09 05:56 -10.13429 -35.65578 36960 ft 473 kts 213°
2026-05-09 05:56 -10.19100 -35.68878 36962 ft 473 kts 213°
2026-05-09 05:57 -10.24810 -35.72203 36963 ft 474 kts 213°
2026-05-09 05:57 -10.30527 -35.75535 36965 ft 474 kts 213°
2026-05-09 05:58 -10.36246 -35.78867 36967 ft 474 kts 213°
2026-05-09 05:58 -10.41961 -35.82203 36966 ft 474 kts 213°
2026-05-09 05:59 -10.47634 -35.85516 36972 ft 473 kts 213°
2026-05-09 05:59 -10.53342 -35.88856 36969 ft 474 kts 213°
2026-05-09 06:00 -10.59059 -35.92201 36969 ft 474 kts 213°
2026-05-09 06:00 -10.64777 -35.95549 36970 ft 474 kts 213°
2026-05-09 06:01 -10.70457 -35.98870 36970 ft 474 kts 213°
2026-05-09 06:01 -10.76178 -36.02217 36969 ft 474 kts 213°
2026-05-09 06:02 -10.81874 -36.05553 36966 ft 472 kts 213°
2026-05-09 06:02 -10.87567 -36.08886 36970 ft 472 kts 213°
2026-05-09 06:03 -10.93264 -36.12225 36969 ft 472 kts 213°
2026-05-09 06:03 -10.98916 -36.15543 36970 ft 472 kts 213°
2026-05-09 06:04 -11.04603 -36.18884 36968 ft 472 kts 213°
2026-05-09 06:04 -11.10294 -36.22225 36968 ft 472 kts 213°
2026-05-09 06:05 -11.16013 -36.25517 36969 ft 473 kts 211°
2026-05-09 06:05 -11.21845 -36.28527 36969 ft 473 kts 209°
2026-05-09 06:06 -11.27733 -36.31541 36971 ft 474 kts 210°
2026-05-09 06:06 -11.33605 -36.34596 36969 ft 473 kts 210°
2026-05-09 06:07 -11.39462 -36.37660 36972 ft 473 kts 210°
2026-05-09 06:07 -11.45281 -36.40706 36969 ft 473 kts 210°
2026-05-09 06:08 -11.51144 -36.43775 36970 ft 473 kts 210°
2026-05-09 06:08 -11.56999 -36.46844 36968 ft 473 kts 210°
2026-05-09 06:09 -11.62816 -36.49896 36971 ft 474 kts 210°
2026-05-09 06:09 -11.68678 -36.52974 36972 ft 474 kts 210°
2026-05-09 06:10 -11.74552 -36.56059 36971 ft 475 kts 210°
2026-05-09 06:10 -11.80420 -36.59143 36974 ft 475 kts 210°
2026-05-09 06:11 -11.86250 -36.62209 36976 ft 474 kts 210°
2026-05-09 06:11 -11.92116 -36.65294 36973 ft 474 kts 210°
2026-05-09 06:12 -11.97978 -36.68379 36979 ft 474 kts 210°
2026-05-09 06:12 -12.03839 -36.71466 36980 ft 474 kts 210°
2026-05-09 06:13 -12.09697 -36.74547 36980 ft 473 kts 210°
2026-05-09 06:13 -12.15505 -36.77610 36982 ft 473 kts 210°
2026-05-09 06:14 -12.21354 -36.80697 36983 ft 473 kts 210°
2026-05-09 06:14 -12.27207 -36.83787 36985 ft 473 kts 210°
2026-05-09 06:15 -12.33052 -36.86873 36987 ft 473 kts 210°
2026-05-09 06:15 -12.38860 -36.89944 36990 ft 473 kts 209°
2026-05-09 06:16 -12.44697 -36.93032 36991 ft 473 kts 209°
2026-05-09 06:16 -12.50538 -36.96126 36993 ft 472 kts 209°
2026-05-09 06:17 -12.56376 -36.99220 36996 ft 472 kts 209°
2026-05-09 06:17 -12.62164 -37.02289 36997 ft 472 kts 209°
2026-05-09 06:18 -12.68001 -37.05378 36999 ft 472 kts 209°
2026-05-09 06:18 -12.73836 -37.08471 37004 ft 472 kts 209°
2026-05-09 06:19 -12.79627 -37.11543 36990 ft 472 kts 209°
2026-05-09 06:19 -12.85451 -37.14630 36989 ft 471 kts 209°
2026-05-09 06:20 -12.91275 -37.17725 36989 ft 471 kts 209°
2026-05-09 06:20 -12.97087 -37.20818 36999 ft 471 kts 209°
2026-05-09 06:21 -13.02908 -37.23916 37000 ft 471 kts 209°
2026-05-09 06:21 -13.08693 -37.26995 36997 ft 471 kts 209°
2026-05-09 06:22 -13.14507 -37.30093 37001 ft 471 kts 209°
2026-05-09 06:22 -13.20313 -37.33188 37007 ft 470 kts 209°
2026-05-09 06:23 -13.26114 -37.36287 37002 ft 469 kts 209°
2026-05-09 06:23 -13.31904 -37.39380 36999 ft 470 kts 209°
2026-05-09 06:24 -13.37662 -37.42459 37006 ft 470 kts 209°
2026-05-09 06:24 -13.43450 -37.45548 37006 ft 470 kts 209°
2026-05-09 06:25 -13.49252 -37.48645 37009 ft 469 kts 209°
2026-05-09 06:25 -13.55036 -37.51738 37012 ft 468 kts 209°
2026-05-09 06:26 -13.60806 -37.54827 37006 ft 468 kts 209°
2026-05-09 06:26 -13.66578 -37.57919 37011 ft 468 kts 209°
2026-05-09 06:27 -13.72354 -37.61015 37012 ft 468 kts 209°
2026-05-09 06:27 -13.78084 -37.64086 37016 ft 467 kts 209°
2026-05-09 06:28 -13.83848 -37.67179 37019 ft 467 kts 209°
2026-05-09 06:28 -13.89613 -37.70274 37019 ft 467 kts 209°
2026-05-09 06:29 -13.95375 -37.73367 37023 ft 467 kts 208°
2026-05-09 06:29 -14.01097 -37.76444 37025 ft 467 kts 209°
2026-05-09 06:30 -14.06847 -37.79536 37028 ft 466 kts 209°
2026-05-09 06:30 -14.12599 -37.82630 37031 ft 466 kts 209°
2026-05-09 06:31 -14.18342 -37.85723 37034 ft 466 kts 209°
2026-05-09 06:31 -14.24054 -37.88800 37037 ft 466 kts 209°
2026-05-09 06:32 -14.29793 -37.91894 37040 ft 466 kts 209°
2026-05-09 06:33 -14.38419 -37.96543 37047 ft 466 kts 209°
2026-05-09 06:33 -14.44176 -37.99651 37049 ft 467 kts 209°
2026-05-09 06:34 -14.52757 -38.04288 37052 ft 465 kts 208°
2026-05-09 06:34 -14.58489 -38.07388 37057 ft 464 kts 208°
2026-05-09 06:35 -14.64209 -38.10481 37059 ft 464 kts 208°
2026-05-09 06:35 -14.69931 -38.13576 37065 ft 463 kts 208°
2026-05-09 06:36 -14.75599 -38.16643 37063 ft 463 kts 208°
2026-05-09 06:36 -14.81311 -38.19736 37066 ft 463 kts 208°
2026-05-09 06:37 -14.87005 -38.22826 37078 ft 462 kts 208°
2026-05-09 06:37 -14.92701 -38.25919 37079 ft 462 kts 208°
2026-05-09 06:38 -14.98346 -38.28985 37080 ft 462 kts 208°
2026-05-09 06:38 -15.04030 -38.32070 37083 ft 461 kts 208°
2026-05-09 06:39 -15.09714 -38.35151 37075 ft 461 kts 208°
2026-05-09 06:39 -15.15393 -38.38233 37078 ft 461 kts 208°
2026-05-09 06:40 -15.21037 -38.41301 37076 ft 461 kts 208°
2026-05-09 06:40 -15.26711 -38.44385 37078 ft 460 kts 208°
2026-05-09 06:41 -15.32384 -38.47471 37076 ft 460 kts 208°
2026-05-09 06:41 -15.38051 -38.50545 37077 ft 460 kts 208°
2026-05-09 06:42 -15.43686 -38.53609 37077 ft 460 kts 208°
2026-05-09 06:42 -15.49356 -38.56694 37079 ft 460 kts 208°
2026-05-09 06:43 -15.55019 -38.59782 37077 ft 460 kts 208°
2026-05-09 06:43 -15.60693 -38.62869 37077 ft 460 kts 208°
2026-05-09 06:44 -15.66315 -38.65937 37078 ft 460 kts 208°
2026-05-09 06:44 -15.72016 -38.69052 37078 ft 460 kts 208°
2026-05-09 06:45 -15.77642 -38.72128 37082 ft 460 kts 208°
2026-05-09 06:45 -15.83297 -38.75219 37079 ft 459 kts 208°
2026-05-09 06:46 -15.88949 -38.78312 37080 ft 459 kts 208°
2026-05-09 06:46 -15.94597 -38.81405 37080 ft 459 kts 208°
2026-05-09 06:47 -16.00249 -38.84490 37081 ft 459 kts 208°
2026-05-09 06:47 -16.05856 -38.87564 37081 ft 458 kts 208°
2026-05-09 06:48 -16.11488 -38.90655 37081 ft 457 kts 208°
2026-05-09 06:48 -16.17108 -38.93742 37082 ft 457 kts 208°
2026-05-09 06:49 -16.22736 -38.96832 37082 ft 457 kts 208°
2026-05-09 06:49 -16.28352 -38.99851 37084 ft 458 kts 207°
2026-05-09 06:50 -16.34027 -39.02864 37082 ft 458 kts 208°
2026-05-09 06:50 -16.39690 -39.05889 37081 ft 458 kts 207°
2026-05-09 06:51 -16.45355 -39.08922 37082 ft 457 kts 208°
2026-05-09 06:51 -16.50917 -39.12043 37082 ft 457 kts 209°
2026-05-09 06:52 -16.56545 -39.15223 37083 ft 457 kts 209°
2026-05-09 06:52 -16.62144 -39.18376 37080 ft 457 kts 209°
2026-05-09 06:53 -16.67706 -39.21508 37083 ft 457 kts 209°
2026-05-09 06:53 -16.73300 -39.24659 37083 ft 456 kts 209°
2026-05-09 06:54 -16.78891 -39.27791 37082 ft 456 kts 209°
2026-05-09 06:54 -16.84475 -39.30936 37083 ft 456 kts 209°
2026-05-09 06:55 -16.90055 -39.34086 37084 ft 456 kts 209°
2026-05-09 06:55 -16.95604 -39.37220 37083 ft 456 kts 209°
2026-05-09 06:56 -17.01298 -39.40436 37084 ft 456 kts 209°
2026-05-09 06:56 -17.06562 -39.43411 37084 ft 456 kts 209°
2026-05-09 06:57 -17.12227 -39.46610 37084 ft 456 kts 209°
2026-05-09 06:57 -17.17806 -39.49767 37087 ft 456 kts 209°
2026-05-09 06:58 -17.23394 -39.52932 37086 ft 457 kts 209°
2026-05-09 06:58 -17.28983 -39.56101 37086 ft 457 kts 209°
2026-05-09 06:59 -17.34536 -39.59248 37085 ft 457 kts 209°
2026-05-09 06:59 -17.39748 -39.62195 37086 ft 457 kts 209°
2026-05-09 07:00 -17.45128 -39.65245 37086 ft 457 kts 209°
2026-05-09 07:00 -17.50755 -39.68438 37087 ft 457 kts 209°
2026-05-09 07:01 -17.56339 -39.71608 37085 ft 457 kts 209°
2026-05-09 07:01 -17.61925 -39.74786 37088 ft 457 kts 209°
2026-05-09 07:02 -17.67485 -39.77950 37088 ft 458 kts 209°
2026-05-09 07:02 -17.73167 -39.81183 37086 ft 458 kts 209°
2026-05-09 07:03 -17.78768 -39.84368 37086 ft 458 kts 209°
2026-05-09 07:03 -17.83455 -39.87039 37089 ft 457 kts 209°
2026-05-09 07:04 -17.89045 -39.90236 37090 ft 458 kts 209°
2026-05-09 07:04 -17.94636 -39.93430 37092 ft 458 kts 209°
2026-05-09 07:05 -18.00230 -39.96629 37087 ft 458 kts 209°
2026-05-09 07:05 -18.05797 -39.99792 37088 ft 458 kts 209°
2026-05-09 07:06 -18.11433 -40.02990 37089 ft 458 kts 209°
2026-05-09 07:06 -18.17069 -40.06194 37089 ft 458 kts 209°
2026-05-09 07:07 -18.22605 -40.09345 37089 ft 458 kts 209°
2026-05-09 07:07 -18.28235 -40.12551 37090 ft 458 kts 209°
2026-05-09 07:08 -18.33870 -40.15754 37089 ft 457 kts 209°
2026-05-09 07:08 -18.39437 -40.18918 37086 ft 457 kts 209°
2026-05-09 07:09 -18.45031 -40.22104 37087 ft 457 kts 209°
2026-05-09 07:09 -18.49791 -40.24819 37075 ft 457 kts 209°
2026-05-09 07:10 -18.54517 -40.27516 37075 ft 457 kts 209°
2026-05-09 07:10 -18.60101 -40.30705 37083 ft 456 kts 209°
2026-05-09 07:11 -18.65389 -40.33728 37087 ft 456 kts 209°
2026-05-09 07:11 -18.70963 -40.36916 37082 ft 456 kts 209°
2026-05-09 07:12 -18.76543 -40.40112 37080 ft 456 kts 209°
2026-05-09 07:12 -18.82085 -40.43286 37080 ft 456 kts 209°
2026-05-09 07:13 -18.87702 -40.46507 37078 ft 456 kts 209°
2026-05-09 07:13 -18.93231 -40.49680 37078 ft 455 kts 209°
2026-05-09 07:14 -18.98793 -40.52874 37078 ft 455 kts 209°
2026-05-09 07:14 -19.04356 -40.56069 37081 ft 455 kts 209°
2026-05-09 07:15 -19.09913 -40.59266 37076 ft 455 kts 209°
2026-05-09 07:15 -19.15444 -40.62450 37075 ft 455 kts 209°
2026-05-09 07:16 -19.20444 -40.65331 37075 ft 455 kts 209°
2026-05-09 07:16 -19.25929 -40.68493 37072 ft 454 kts 209°
2026-05-09 07:17 -19.31479 -40.71688 37076 ft 454 kts 209°
2026-05-09 07:17 -19.37033 -40.74892 37073 ft 454 kts 209°
2026-05-09 07:18 -19.42577 -40.78098 37075 ft 454 kts 210°
2026-05-09 07:18 -19.48126 -40.81311 37073 ft 454 kts 210°
2026-05-09 07:19 -19.53644 -40.84507 37063 ft 455 kts 210°
2026-05-09 07:19 -19.59298 -40.87782 37063 ft 454 kts 209°
2026-05-09 07:20 -19.64856 -40.90981 37061 ft 455 kts 210°
2026-05-09 07:20 -19.70412 -40.94200 37062 ft 454 kts 210°
2026-05-09 07:21 -19.75949 -40.97410 37062 ft 453 kts 210°
2026-05-09 07:21 -19.81483 -41.00620 37062 ft 453 kts 210°
2026-05-09 07:22 -19.87020 -41.03836 37062 ft 454 kts 210°
2026-05-09 07:22 -19.92186 -41.06866 37063 ft 454 kts 210°
2026-05-09 07:23 -19.97708 -41.10119 37062 ft 454 kts 210°
2026-05-09 07:23 -20.03193 -41.13354 37062 ft 454 kts 210°
2026-05-09 07:24 -20.08752 -41.16635 37061 ft 454 kts 210°
2026-05-09 07:24 -20.14270 -41.19893 37063 ft 454 kts 210°
2026-05-09 07:25 -20.19797 -41.23155 37062 ft 454 kts 210°
2026-05-09 07:25 -20.25332 -41.26407 37061 ft 454 kts 210°
2026-05-09 07:26 -20.30863 -41.29670 37062 ft 454 kts 210°
2026-05-09 07:26 -20.36386 -41.32935 37061 ft 454 kts 210°
2026-05-09 07:27 -20.41909 -41.36205 37053 ft 454 kts 210°
2026-05-09 07:27 -20.45523 -41.38344 37052 ft 454 kts 210°
2026-05-09 07:28 -20.51007 -41.41592 37048 ft 454 kts 210°
2026-05-09 07:28 -20.56546 -41.44843 37051 ft 454 kts 210°
2026-05-09 07:29 -20.62078 -41.48098 37050 ft 454 kts 210°
2026-05-09 07:29 -20.67616 -41.51362 37045 ft 454 kts 210°
2026-05-09 07:30 -20.73148 -41.54626 37043 ft 455 kts 210°
2026-05-09 07:30 -20.78689 -41.57899 37041 ft 455 kts 210°
2026-05-09 07:31 -20.84204 -41.61144 37040 ft 456 kts 210°
2026-05-09 07:31 -20.89759 -41.64421 37041 ft 456 kts 210°
2026-05-09 07:32 -20.95312 -41.67695 37039 ft 456 kts 210°
2026-05-09 07:32 -21.00862 -41.70979 37033 ft 456 kts 210°
2026-05-09 07:33 -21.09161 -41.75902 37031 ft 457 kts 210°
2026-05-09 07:34 -21.13773 -41.78643 37038 ft 457 kts 211°
2026-05-09 07:34 -21.19472 -41.82027 37032 ft 457 kts 210°
2026-05-09 07:35 -21.25030 -41.85325 37036 ft 457 kts 211°
2026-05-09 07:35 -21.30598 -41.88634 37034 ft 457 kts 211°
2026-05-09 07:36 -21.36128 -41.91925 37034 ft 458 kts 211°
2026-05-09 07:36 -21.41691 -41.95239 37031 ft 458 kts 211°
2026-05-09 07:37 -21.47266 -41.98562 37032 ft 458 kts 211°
2026-05-09 07:37 -21.52837 -42.01876 37032 ft 458 kts 211°
2026-05-09 07:38 -21.58380 -42.05168 37033 ft 459 kts 211°
2026-05-09 07:38 -21.64075 -42.08564 37033 ft 459 kts 211°
2026-05-09 07:39 -21.69659 -42.11906 36998 ft 459 kts 211°
2026-05-09 07:39 -21.75234 -42.15245 37001 ft 459 kts 211°
2026-05-09 07:40 -21.80807 -42.18584 37005 ft 459 kts 211°
2026-05-09 07:40 -21.86378 -42.21925 37005 ft 459 kts 211°
2026-05-09 07:41 -21.91955 -42.25285 37003 ft 459 kts 211°
2026-05-09 07:41 -21.96578 -42.28078 36997 ft 459 kts 211°
2026-05-09 07:41 -21.99624 -42.29921 36982 ft 446 kts 211°
2026-05-09 07:42 -22.02610 -42.31729 36440 ft 444 kts 211°
2026-05-09 07:42 -22.05308 -42.33361 35843 ft 445 kts 211°
2026-05-09 07:42 -22.08013 -42.35052 35232 ft 440 kts 217°
2026-05-09 07:42 -22.10265 -42.37215 34628 ft 429 kts 232°
2026-05-09 07:43 -22.11811 -42.39900 34031 ft 419 kts 248°
2026-05-09 07:43 -22.12666 -42.42872 33436 ft 412 kts 256°
2026-05-09 07:43 -22.13311 -42.45866 32831 ft 406 kts 257°
2026-05-09 07:43 -22.13891 -42.48826 32234 ft 401 kts 258°
2026-05-09 07:44 -22.14436 -42.51746 31633 ft 395 kts 259°
2026-05-09 07:44 -22.14960 -42.54597 31042 ft 389 kts 258°
2026-05-09 07:44 -22.15540 -42.57425 30442 ft 384 kts 257°
2026-05-09 07:44 -22.16169 -42.60211 29840 ft 379 kts 256°
2026-05-09 07:45 -22.16823 -42.62949 29239 ft 374 kts 256°
2026-05-09 07:45 -22.17474 -42.65643 28639 ft 369 kts 256°
2026-05-09 07:45 -22.18114 -42.68309 28038 ft 365 kts 256°
2026-05-09 07:45 -22.18745 -42.70947 27436 ft 361 kts 256°
2026-05-09 07:46 -22.19368 -42.73554 26835 ft 357 kts 257°
2026-05-09 07:46 -22.19977 -42.76108 26242 ft 354 kts 257°
2026-05-09 07:46 -22.20588 -42.78669 25640 ft 351 kts 257°
2026-05-09 07:46 -22.21195 -42.81211 25040 ft 349 kts 257°
2026-05-09 07:47 -22.21798 -42.83739 24436 ft 346 kts 257°
2026-05-09 07:47 -22.22397 -42.86249 23835 ft 344 kts 257°
2026-05-09 07:47 -22.22994 -42.88736 23235 ft 341 kts 258°
2026-05-09 07:47 -22.23585 -42.91208 22633 ft 339 kts 258°
2026-05-09 07:48 -22.24170 -42.93668 22039 ft 337 kts 258°
2026-05-09 07:48 -22.24748 -42.96105 21440 ft 336 kts 258°
2026-05-09 07:48 -22.25321 -42.98517 20845 ft 334 kts 258°
2026-05-09 07:48 -22.25897 -43.00939 20247 ft 332 kts 258°
2026-05-09 07:49 -22.26469 -43.03355 19652 ft 332 kts 258°
2026-05-09 07:49 -22.27045 -43.05761 19049 ft 330 kts 258°
2026-05-09 07:49 -22.27616 -43.08162 18449 ft 329 kts 258°
2026-05-09 07:49 -22.28183 -43.10551 17844 ft 328 kts 258°
2026-05-09 07:50 -22.28747 -43.12933 17245 ft 327 kts 258°
2026-05-09 07:50 -22.29308 -43.15306 16646 ft 325 kts 259°
2026-05-09 07:50 -22.29856 -43.17632 16052 ft 323 kts 258°
2026-05-09 07:50 -22.30409 -43.19978 15455 ft 322 kts 258°
2026-05-09 07:51 -22.30962 -43.22319 14856 ft 321 kts 258°
2026-05-09 07:51 -22.31510 -43.24649 14257 ft 320 kts 259°
2026-05-09 07:51 -22.32063 -43.26972 13653 ft 319 kts 258°
2026-05-09 07:51 -22.32613 -43.29288 13052 ft 317 kts 259°
2026-05-09 07:52 -22.33157 -43.31591 12452 ft 316 kts 259°
2026-05-09 07:52 -22.33698 -43.33891 11853 ft 315 kts 259°
2026-05-09 07:52 -22.34237 -43.36177 11252 ft 314 kts 259°
2026-05-09 07:52 -22.34763 -43.38432 10717 ft 314 kts 259°
2026-05-09 07:53 -22.35299 -43.40720 10312 ft 315 kts 259°
2026-05-09 07:53 -22.35835 -43.43019 9921 ft 315 kts 259°
2026-05-09 07:53 -22.36388 -43.45290 9693 ft 310 kts 256°
2026-05-09 07:53 -22.37341 -43.47353 9447 ft 309 kts 235°
2026-05-09 07:54 -22.38951 -43.48870 9227 ft 307 kts 217°
2026-05-09 07:54 -22.40769 -43.49989 9023 ft 303 kts 211°
2026-05-09 07:54 -22.42664 -43.50950 8795 ft 299 kts 205°
2026-05-09 07:54 -22.44602 -43.51719 8565 ft 295 kts 200°
2026-05-09 07:55 -22.46541 -43.52384 8339 ft 290 kts 202°
2026-05-09 07:55 -22.48411 -43.53142 8132 ft 286 kts 204°
2026-05-09 07:55 -22.50244 -43.53943 7898 ft 282 kts 204°
2026-05-09 07:55 -22.52055 -43.54715 7674 ft 278 kts 203°
2026-05-09 07:56 -22.53856 -43.55461 7446 ft 275 kts 201°
2026-05-09 07:56 -22.55651 -43.56026 7231 ft 272 kts 192°
2026-05-09 07:56 -22.57540 -43.55959 6998 ft 268 kts 166°
2026-05-09 07:56 -22.59165 -43.55092 6776 ft 262 kts 148°
2026-05-09 07:57 -22.60665 -43.54022 6540 ft 259 kts 149°
2026-05-09 07:57 -22.62236 -43.53078 6373 ft 255 kts 151°
2026-05-09 07:57 -22.63779 -43.52120 6385 ft 256 kts 144°
2026-05-09 07:57 -22.65129 -43.50875 6393 ft 256 kts 133°
2026-05-09 07:58 -22.66262 -43.49368 6262 ft 258 kts 124°
2026-05-09 07:58 -22.67227 -43.47725 5899 ft 259 kts 118°
2026-05-09 07:58 -22.68164 -43.46064 5453 ft 266 kts 122°
2026-05-09 07:58 -22.69252 -43.44400 4960 ft 276 kts 123°
2026-05-09 07:59 -22.70400 -43.42695 4461 ft 284 kts 124°
2026-05-09 07:59 -22.71577 -43.40944 3962 ft 289 kts 124°
2026-05-09 07:59 -22.72722 -43.39222 3554 ft 272 kts 123°
2026-05-09 07:59 -22.73801 -43.37626 3052 ft 257 kts 124°
2026-05-09 08:00 -22.74823 -43.36092 2381 ft 242 kts 123°
2026-05-09 08:00 -22.75805 -43.34563 1908 ft 219 kts 123°
2026-05-09 08:00 -22.76566 -43.33410 1779 ft 189 kts 124°
2026-05-09 08:00 -22.77304 -43.32329 1516 ft 169 kts 121°
2026-05-09 08:01 -22.77942 -43.31303 1265 ft 160 kts 121°
2026-05-09 08:01 -22.78579 -43.30357 1017 ft 152 kts 124°
2026-05-09 08:01 -22.79197 -43.29433 733 ft 152 kts 124°
2026-05-09 08:01 -22.79814 -43.28503 500 ft 151 kts 125°
2026-05-09 08:02 -22.80424 -43.27591 287 ft 149 kts 125°
2026-05-09 08:02 -22.81021 -43.26691 122 ft 145 kts 126°
2026-05-09 08:02 -22.81602 -43.25818 44 ft 133 kts 125°
2026-05-09 08:02 -22.82035 -43.25169 43 ft 83 kts 126°
2026-05-09 08:03 -22.82263 -43.24825 42 ft 31 kts 126°
2026-05-09 08:03 -22.82346 -43.24676 42 ft 22 kts 102°
2026-05-09 08:03 -22.82367 -43.24522 42 ft 20 kts 96°
2026-05-09 08:03 -22.82321 -43.24398 42 ft 19 kts 33°
2026-05-09 08:04 -22.82213 -43.24318 42 ft 18 kts 34°
2026-05-09 08:04 -22.82119 -43.24303 42 ft 10 kts 300°
2026-05-09 08:04 -22.82070 -43.24391 42 ft 19 kts 303°
2026-05-09 08:04 -22.81994 -43.24508 42 ft 18 kts 305°
2026-05-09 08:05 -22.81919 -43.24581 42 ft 11 kts 15°
2026-05-09 08:05 -22.81865 -43.24527 42 ft 10 kts 41°
2026-05-09 08:05 -22.81809 -43.24482 42 ft 10 kts 35°
2026-05-09 08:05 -22.81776 -43.24428 42 ft 5 kts 101°
2026-05-09 08:06 -22.81788 -43.24413 42 ft 0 kts 136°